<?xml version="1.0" encoding="UTF-8" standalone="no" ?>
<gpx xmlns="http://www.topografix.com/GPX/1/1" xmlns:xsi="http://www.w3.org/2001/XMLSchema-instance" xsi:schemaLocation="http://www.topografix.com/GPX/1/1 http://www.topografix.com/GPX/1/1/gpx.xsd" version="1.1" creator="VisuGPX - https://www.visugpx.com">
  <metadata>
    <name>De Thury à Clécy</name>
    <desc><![CDATA[voie verte suisse normande trace 1, 2,3, 4, 5]]></desc>
  </metadata>
  <trk>
    <name><![CDATA[Paths/Thury_conde]]></name>
    <trkseg>
      <trkpt lat="48.90556" lon="-0.46782">
        <ele>65</ele>
        <time>2018-07-10T10:49:53Z</time>
      </trkpt>
      <trkpt lat="48.90579" lon="-0.46829">
        <ele>64.9</ele>
        <time>2018-07-10T10:49:53Z</time>
      </trkpt>
      <trkpt lat="48.90612" lon="-0.46887">
        <ele>64</ele>
        <time>2018-07-10T10:49:53Z</time>
      </trkpt>
      <trkpt lat="48.90621" lon="-0.46902">
        <ele>63</ele>
        <time>2018-07-10T10:49:53Z</time>
      </trkpt>
      <trkpt lat="48.90655" lon="-0.46949">
        <ele>61.9</ele>
        <time>2018-07-10T10:49:53Z</time>
      </trkpt>
      <trkpt lat="48.90689" lon="-0.46989">
        <ele>60.5</ele>
        <time>2018-07-10T10:49:53Z</time>
      </trkpt>
      <trkpt lat="48.90724" lon="-0.47021">
        <ele>60.4</ele>
        <time>2018-07-10T10:49:53Z</time>
      </trkpt>
      <trkpt lat="48.90753" lon="-0.47047">
        <ele>58.9</ele>
        <time>2018-07-10T10:49:53Z</time>
      </trkpt>
      <trkpt lat="48.90785" lon="-0.47069">
        <ele>57.9</ele>
        <time>2018-07-10T10:49:53Z</time>
      </trkpt>
      <trkpt lat="48.90819" lon="-0.47089">
        <ele>58.8</ele>
        <time>2018-07-10T10:49:53Z</time>
      </trkpt>
      <trkpt lat="48.9087" lon="-0.47114">
        <ele>54.8</ele>
        <time>2018-07-10T10:49:53Z</time>
      </trkpt>
      <trkpt lat="48.90898" lon="-0.47127">
        <ele>42.2</ele>
        <time>2018-07-10T10:49:53Z</time>
      </trkpt>
      <trkpt lat="48.90975" lon="-0.47163">
        <ele>38</ele>
        <time>2018-07-10T10:49:53Z</time>
      </trkpt>
      <trkpt lat="48.91003" lon="-0.47177">
        <ele>51.8</ele>
        <time>2018-07-10T10:49:53Z</time>
      </trkpt>
      <trkpt lat="48.91049" lon="-0.47198">
        <ele>57</ele>
        <time>2018-07-10T10:49:53Z</time>
      </trkpt>
      <trkpt lat="48.91099" lon="-0.47225">
        <ele>57.5</ele>
        <time>2018-07-10T10:49:53Z</time>
      </trkpt>
      <trkpt lat="48.91159" lon="-0.47248">
        <ele>56.9</ele>
        <time>2018-07-10T10:49:53Z</time>
      </trkpt>
      <trkpt lat="48.912" lon="-0.47256">
        <ele>55.5</ele>
        <time>2018-07-10T10:49:53Z</time>
      </trkpt>
      <trkpt lat="48.91229" lon="-0.4726">
        <ele>54.7</ele>
        <time>2018-07-10T10:49:53Z</time>
      </trkpt>
      <trkpt lat="48.91262" lon="-0.47261">
        <ele>53.5</ele>
        <time>2018-07-10T10:49:53Z</time>
      </trkpt>
      <trkpt lat="48.91283" lon="-0.47259">
        <ele>52.9</ele>
        <time>2018-07-10T10:49:53Z</time>
      </trkpt>
      <trkpt lat="48.91307" lon="-0.47257">
        <ele>51.5</ele>
        <time>2018-07-10T10:49:53Z</time>
      </trkpt>
      <trkpt lat="48.91352" lon="-0.47252">
        <ele>52.5</ele>
        <time>2018-07-10T10:49:53Z</time>
      </trkpt>
      <trkpt lat="48.91387" lon="-0.47248">
        <ele>51.7</ele>
        <time>2018-07-10T10:49:53Z</time>
      </trkpt>
      <trkpt lat="48.91461" lon="-0.47239">
        <ele>48.4</ele>
        <time>2018-07-10T10:49:53Z</time>
      </trkpt>
      <trkpt lat="48.91548" lon="-0.47231">
        <ele>49.1</ele>
        <time>2018-07-10T10:49:53Z</time>
      </trkpt>
      <trkpt lat="48.9163" lon="-0.4722">
        <ele>49.1</ele>
        <time>2018-07-10T10:49:53Z</time>
      </trkpt>
      <trkpt lat="48.91711" lon="-0.47206">
        <ele>45.8</ele>
        <time>2018-07-10T10:49:53Z</time>
      </trkpt>
      <trkpt lat="48.91712" lon="-0.47206">
        <ele>45.9</ele>
        <time>2018-07-10T10:49:53Z</time>
      </trkpt>
      <trkpt lat="48.91716" lon="-0.47205">
        <ele>45.9</ele>
        <time>2018-07-10T10:49:53Z</time>
      </trkpt>
      <trkpt lat="48.91783" lon="-0.472">
        <ele>46.9</ele>
        <time>2018-07-10T10:49:53Z</time>
      </trkpt>
      <trkpt lat="48.91793" lon="-0.47198">
        <ele>46.9</ele>
        <time>2018-07-10T10:49:53Z</time>
      </trkpt>
      <trkpt lat="48.91874" lon="-0.47185">
        <ele>45.9</ele>
        <time>2018-07-10T10:49:53Z</time>
      </trkpt>
      <trkpt lat="48.91951" lon="-0.47175">
        <ele>45.4</ele>
        <time>2018-07-10T10:49:53Z</time>
      </trkpt>
      <trkpt lat="48.92019" lon="-0.47163">
        <ele>45.5</ele>
        <time>2018-07-10T10:49:53Z</time>
      </trkpt>
      <trkpt lat="48.92085" lon="-0.47143">
        <ele>43.7</ele>
        <time>2018-07-10T10:49:53Z</time>
      </trkpt>
      <trkpt lat="48.9216" lon="-0.4712">
        <ele>41.7</ele>
        <time>2018-07-10T10:49:53Z</time>
      </trkpt>
      <trkpt lat="48.92234" lon="-0.47096">
        <ele>40.8</ele>
        <time>2018-07-10T10:49:53Z</time>
      </trkpt>
      <trkpt lat="48.92305" lon="-0.47069">
        <ele>41.1</ele>
        <time>2018-07-10T10:49:53Z</time>
      </trkpt>
      <trkpt lat="48.92371" lon="-0.47049">
        <ele>41.1</ele>
        <time>2018-07-10T10:49:53Z</time>
      </trkpt>
      <trkpt lat="48.92433" lon="-0.47032">
        <ele>40.7</ele>
        <time>2018-07-10T10:49:53Z</time>
      </trkpt>
      <trkpt lat="48.92478" lon="-0.47022">
        <ele>41.6</ele>
        <time>2018-07-10T10:49:53Z</time>
      </trkpt>
      <trkpt lat="48.92503" lon="-0.47021">
        <ele>42.6</ele>
        <time>2018-07-10T10:49:53Z</time>
      </trkpt>
      <trkpt lat="48.9253" lon="-0.47023">
        <ele>43.9</ele>
        <time>2018-07-10T10:49:53Z</time>
      </trkpt>
      <trkpt lat="48.92559" lon="-0.47026">
        <ele>41.6</ele>
        <time>2018-07-10T10:49:53Z</time>
      </trkpt>
      <trkpt lat="48.92596" lon="-0.47037">
        <ele>42.6</ele>
        <time>2018-07-10T10:49:53Z</time>
      </trkpt>
      <trkpt lat="48.92636" lon="-0.47056">
        <ele>40.2</ele>
        <time>2018-07-10T10:49:53Z</time>
      </trkpt>
      <trkpt lat="48.92671" lon="-0.47083">
        <ele>40.8</ele>
        <time>2018-07-10T10:49:53Z</time>
      </trkpt>
      <trkpt lat="48.92711" lon="-0.47132">
        <ele>39</ele>
        <time>2018-07-10T10:49:53Z</time>
      </trkpt>
      <trkpt lat="48.9274" lon="-0.47173">
        <ele>37.1</ele>
        <time>2018-07-10T10:49:53Z</time>
      </trkpt>
      <trkpt lat="48.92767" lon="-0.47222">
        <ele>35</ele>
        <time>2018-07-10T10:49:53Z</time>
      </trkpt>
      <trkpt lat="48.92791" lon="-0.47283">
        <ele>35.1</ele>
        <time>2018-07-10T10:49:53Z</time>
      </trkpt>
      <trkpt lat="48.9281" lon="-0.47346">
        <ele>36.8</ele>
        <time>2018-07-10T10:49:53Z</time>
      </trkpt>
      <trkpt lat="48.92819" lon="-0.47402">
        <ele>34.8</ele>
        <time>2018-07-10T10:49:53Z</time>
      </trkpt>
      <trkpt lat="48.92824" lon="-0.47433">
        <ele>34.3</ele>
        <time>2018-07-10T10:49:53Z</time>
      </trkpt>
      <trkpt lat="48.92825" lon="-0.4749">
        <ele>35.9</ele>
        <time>2018-07-10T10:49:53Z</time>
      </trkpt>
      <trkpt lat="48.92821" lon="-0.47559">
        <ele>41.4</ele>
        <time>2018-07-10T10:49:53Z</time>
      </trkpt>
      <trkpt lat="48.9281" lon="-0.47642">
        <ele>41.1</ele>
        <time>2018-07-10T10:49:53Z</time>
      </trkpt>
      <trkpt lat="48.92793" lon="-0.47728">
        <ele>42.2</ele>
        <time>2018-07-10T10:49:53Z</time>
      </trkpt>
      <trkpt lat="48.92781" lon="-0.47792">
        <ele>40</ele>
        <time>2018-07-10T10:49:53Z</time>
      </trkpt>
      <trkpt lat="48.92773" lon="-0.47832">
        <ele>37.3</ele>
        <time>2018-07-10T10:49:53Z</time>
      </trkpt>
      <trkpt lat="48.92764" lon="-0.47908">
        <ele>37</ele>
        <time>2018-07-10T10:49:53Z</time>
      </trkpt>
      <trkpt lat="48.92762" lon="-0.47954">
        <ele>37.9</ele>
        <time>2018-07-10T10:49:53Z</time>
      </trkpt>
      <trkpt lat="48.92763" lon="-0.48014">
        <ele>38.9</ele>
        <time>2018-07-10T10:49:53Z</time>
      </trkpt>
      <trkpt lat="48.92766" lon="-0.48087">
        <ele>38.9</ele>
        <time>2018-07-10T10:49:53Z</time>
      </trkpt>
      <trkpt lat="48.9277" lon="-0.48186">
        <ele>40.6</ele>
        <time>2018-07-10T10:49:53Z</time>
      </trkpt>
      <trkpt lat="48.92775" lon="-0.48291">
        <ele>39.9</ele>
        <time>2018-07-10T10:49:53Z</time>
      </trkpt>
      <trkpt lat="48.92782" lon="-0.48422">
        <ele>39.6</ele>
        <time>2018-07-10T10:49:53Z</time>
      </trkpt>
      <trkpt lat="48.92788" lon="-0.48545">
        <ele>37.6</ele>
        <time>2018-07-10T10:49:53Z</time>
      </trkpt>
      <trkpt lat="48.92795" lon="-0.48677">
        <ele>38.8</ele>
        <time>2018-07-10T10:49:53Z</time>
      </trkpt>
      <trkpt lat="48.92801" lon="-0.48763">
        <ele>41.5</ele>
        <time>2018-07-10T10:49:53Z</time>
      </trkpt>
      <trkpt lat="48.92806" lon="-0.48868">
        <ele>42</ele>
        <time>2018-07-10T10:49:53Z</time>
      </trkpt>
      <trkpt lat="48.92811" lon="-0.48978">
        <ele>42.4</ele>
        <time>2018-07-10T10:49:53Z</time>
      </trkpt>
      <trkpt lat="48.9282" lon="-0.49138">
        <ele>43.1</ele>
        <time>2018-07-10T10:49:53Z</time>
      </trkpt>
      <trkpt lat="48.92828" lon="-0.49302">
        <ele>41.6</ele>
        <time>2018-07-10T10:49:53Z</time>
      </trkpt>
      <trkpt lat="48.92835" lon="-0.49444">
        <ele>41.1</ele>
        <time>2018-07-10T10:49:53Z</time>
      </trkpt>
      <trkpt lat="48.92842" lon="-0.49587">
        <ele>39.9</ele>
        <time>2018-07-10T10:49:53Z</time>
      </trkpt>
      <trkpt lat="48.9285" lon="-0.49734">
        <ele>40.1</ele>
        <time>2018-07-10T10:49:53Z</time>
      </trkpt>
      <trkpt lat="48.92858" lon="-0.49894">
        <ele>38.4</ele>
        <time>2018-07-10T10:49:53Z</time>
      </trkpt>
      <trkpt lat="48.92864" lon="-0.49967">
        <ele>37.9</ele>
        <time>2018-07-10T10:49:53Z</time>
      </trkpt>
      <trkpt lat="48.92869" lon="-0.50022">
        <ele>37.9</ele>
        <time>2018-07-10T10:49:53Z</time>
      </trkpt>
      <trkpt lat="48.92882" lon="-0.50097">
        <ele>37.4</ele>
        <time>2018-07-10T10:49:53Z</time>
      </trkpt>
      <trkpt lat="48.92895" lon="-0.50176">
        <ele>37.5</ele>
        <time>2018-07-10T10:49:53Z</time>
      </trkpt>
      <trkpt lat="48.92906" lon="-0.50248">
        <ele>35.2</ele>
        <time>2018-07-10T10:49:53Z</time>
      </trkpt>
      <trkpt lat="48.92921" lon="-0.50341">
        <ele>35.9</ele>
        <time>2018-07-10T10:49:53Z</time>
      </trkpt>
      <trkpt lat="48.92934" lon="-0.50433">
        <ele>35.8</ele>
        <time>2018-07-10T10:49:53Z</time>
      </trkpt>
      <trkpt lat="48.92946" lon="-0.50538">
        <ele>36.7</ele>
        <time>2018-07-10T10:49:53Z</time>
      </trkpt>
      <trkpt lat="48.9296" lon="-0.50651">
        <ele>34.3</ele>
        <time>2018-07-10T10:49:53Z</time>
      </trkpt>
      <trkpt lat="48.92973" lon="-0.50715">
        <ele>36.7</ele>
        <time>2018-07-10T10:49:53Z</time>
      </trkpt>
      <trkpt lat="48.9299" lon="-0.50776">
        <ele>41.1</ele>
        <time>2018-07-10T10:49:53Z</time>
      </trkpt>
      <trkpt lat="48.93016" lon="-0.50846">
        <ele>44.9</ele>
        <time>2018-07-10T10:49:53Z</time>
      </trkpt>
      <trkpt lat="48.93052" lon="-0.50909">
        <ele>40.3</ele>
        <time>2018-07-10T10:49:53Z</time>
      </trkpt>
      <trkpt lat="48.93084" lon="-0.50955">
        <ele>39.6</ele>
        <time>2018-07-10T10:49:53Z</time>
      </trkpt>
      <trkpt lat="48.93119" lon="-0.50999">
        <ele>38.5</ele>
        <time>2018-07-10T10:49:53Z</time>
      </trkpt>
      <trkpt lat="48.93146" lon="-0.51024">
        <ele>36.2</ele>
        <time>2018-07-10T10:49:53Z</time>
      </trkpt>
      <trkpt lat="48.93187" lon="-0.51044">
        <ele>35.3</ele>
        <time>2018-07-10T10:49:53Z</time>
      </trkpt>
      <trkpt lat="48.93216" lon="-0.51058">
        <ele>34.9</ele>
        <time>2018-07-10T10:49:53Z</time>
      </trkpt>
      <trkpt lat="48.93245" lon="-0.51067">
        <ele>34</ele>
        <time>2018-07-10T10:49:53Z</time>
      </trkpt>
      <trkpt lat="48.93272" lon="-0.51072">
        <ele>34.3</ele>
        <time>2018-07-10T10:49:53Z</time>
      </trkpt>
      <trkpt lat="48.93298" lon="-0.51077">
        <ele>35.1</ele>
        <time>2018-07-10T10:49:53Z</time>
      </trkpt>
      <trkpt lat="48.93325" lon="-0.51077">
        <ele>34.5</ele>
        <time>2018-07-10T10:49:53Z</time>
      </trkpt>
      <trkpt lat="48.93359" lon="-0.51073">
        <ele>32.7</ele>
        <time>2018-07-10T10:49:53Z</time>
      </trkpt>
      <trkpt lat="48.93382" lon="-0.51067">
        <ele>33.6</ele>
        <time>2018-07-10T10:49:53Z</time>
      </trkpt>
      <trkpt lat="48.93408" lon="-0.51058">
        <ele>35.1</ele>
        <time>2018-07-10T10:49:53Z</time>
      </trkpt>
      <trkpt lat="48.9343" lon="-0.51046">
        <ele>34.2</ele>
        <time>2018-07-10T10:49:53Z</time>
      </trkpt>
      <trkpt lat="48.93458" lon="-0.5103">
        <ele>34.4</ele>
        <time>2018-07-10T10:49:53Z</time>
      </trkpt>
      <trkpt lat="48.93489" lon="-0.51007">
        <ele>34.2</ele>
        <time>2018-07-10T10:49:53Z</time>
      </trkpt>
      <trkpt lat="48.9353" lon="-0.50968">
        <ele>35.2</ele>
        <time>2018-07-10T10:49:53Z</time>
      </trkpt>
      <trkpt lat="48.93589" lon="-0.50907">
        <ele>34.4</ele>
        <time>2018-07-10T10:49:53Z</time>
      </trkpt>
      <trkpt lat="48.93662" lon="-0.50832">
        <ele>36.4</ele>
        <time>2018-07-10T10:49:53Z</time>
      </trkpt>
      <trkpt lat="48.93698" lon="-0.50796">
        <ele>36.8</ele>
        <time>2018-07-10T10:49:53Z</time>
      </trkpt>
      <trkpt lat="48.93773" lon="-0.50718">
        <ele>37.5</ele>
        <time>2018-07-10T10:49:53Z</time>
      </trkpt>
      <trkpt lat="48.93813" lon="-0.50677">
        <ele>37.9</ele>
        <time>2018-07-10T10:49:53Z</time>
      </trkpt>
      <trkpt lat="48.93906" lon="-0.5058">
        <ele>37.5</ele>
        <time>2018-07-10T10:49:53Z</time>
      </trkpt>
      <trkpt lat="48.93994" lon="-0.50493">
        <ele>37.1</ele>
        <time>2018-07-10T10:49:53Z</time>
      </trkpt>
      <trkpt lat="48.94072" lon="-0.50415">
        <ele>37.4</ele>
        <time>2018-07-10T10:49:53Z</time>
      </trkpt>
      <trkpt lat="48.94131" lon="-0.50354">
        <ele>37.2</ele>
        <time>2018-07-10T10:49:53Z</time>
      </trkpt>
      <trkpt lat="48.94204" lon="-0.50277">
        <ele>37</ele>
        <time>2018-07-10T10:49:53Z</time>
      </trkpt>
      <trkpt lat="48.94263" lon="-0.50214">
        <ele>37.5</ele>
        <time>2018-07-10T10:49:53Z</time>
      </trkpt>
      <trkpt lat="48.94289" lon="-0.50189">
        <ele>37.8</ele>
        <time>2018-07-10T10:49:53Z</time>
      </trkpt>
      <trkpt lat="48.94308" lon="-0.50174">
        <ele>37.7</ele>
        <time>2018-07-10T10:49:53Z</time>
      </trkpt>
      <trkpt lat="48.94341" lon="-0.50157">
        <ele>37.2</ele>
        <time>2018-07-10T10:49:53Z</time>
      </trkpt>
      <trkpt lat="48.94363" lon="-0.5015">
        <ele>37.2</ele>
        <time>2018-07-10T10:49:53Z</time>
      </trkpt>
      <trkpt lat="48.94385" lon="-0.50144">
        <ele>37</ele>
        <time>2018-07-10T10:49:53Z</time>
      </trkpt>
      <trkpt lat="48.94406" lon="-0.5014">
        <ele>36.9</ele>
        <time>2018-07-10T10:49:53Z</time>
      </trkpt>
      <trkpt lat="48.94427" lon="-0.50142">
        <ele>36.5</ele>
        <time>2018-07-10T10:49:53Z</time>
      </trkpt>
      <trkpt lat="48.94443" lon="-0.50145">
        <ele>36</ele>
        <time>2018-07-10T10:49:53Z</time>
      </trkpt>
      <trkpt lat="48.94446" lon="-0.50146">
        <ele>36.1</ele>
        <time>2018-07-10T10:49:53Z</time>
      </trkpt>
      <trkpt lat="48.94466" lon="-0.50153">
        <ele>37.5</ele>
        <time>2018-07-10T10:49:53Z</time>
      </trkpt>
      <trkpt lat="48.94501" lon="-0.50167">
        <ele>36.1</ele>
        <time>2018-07-10T10:49:53Z</time>
      </trkpt>
      <trkpt lat="48.94523" lon="-0.50177">
        <ele>36.5</ele>
        <time>2018-07-10T10:49:53Z</time>
      </trkpt>
      <trkpt lat="48.94559" lon="-0.50198">
        <ele>34.8</ele>
        <time>2018-07-10T10:49:53Z</time>
      </trkpt>
      <trkpt lat="48.94598" lon="-0.50222">
        <ele>36.3</ele>
        <time>2018-07-10T10:49:53Z</time>
      </trkpt>
      <trkpt lat="48.94633" lon="-0.50244">
        <ele>37.3</ele>
        <time>2018-07-10T10:49:53Z</time>
      </trkpt>
      <trkpt lat="48.94656" lon="-0.50256">
        <ele>35.7</ele>
        <time>2018-07-10T10:49:53Z</time>
      </trkpt>
      <trkpt lat="48.94677" lon="-0.50263">
        <ele>35.5</ele>
        <time>2018-07-10T10:49:53Z</time>
      </trkpt>
      <trkpt lat="48.94695" lon="-0.50265">
        <ele>36</ele>
        <time>2018-07-10T10:49:53Z</time>
      </trkpt>
      <trkpt lat="48.94717" lon="-0.50266">
        <ele>36.3</ele>
        <time>2018-07-10T10:49:53Z</time>
      </trkpt>
      <trkpt lat="48.94771" lon="-0.50266">
        <ele>31.2</ele>
        <time>2018-07-10T10:49:53Z</time>
      </trkpt>
      <trkpt lat="48.94805" lon="-0.50268">
        <ele>31</ele>
        <time>2018-07-10T10:49:53Z</time>
      </trkpt>
      <trkpt lat="48.94834" lon="-0.50269">
        <ele>31.6</ele>
        <time>2018-07-10T10:49:53Z</time>
      </trkpt>
      <trkpt lat="48.94856" lon="-0.50271">
        <ele>31.3</ele>
        <time>2018-07-10T10:49:53Z</time>
      </trkpt>
      <trkpt lat="48.94877" lon="-0.50275">
        <ele>32.2</ele>
        <time>2018-07-10T10:49:53Z</time>
      </trkpt>
      <trkpt lat="48.94899" lon="-0.5028">
        <ele>32.1</ele>
        <time>2018-07-10T10:49:53Z</time>
      </trkpt>
      <trkpt lat="48.94935" lon="-0.50293">
        <ele>34.4</ele>
        <time>2018-07-10T10:49:53Z</time>
      </trkpt>
      <trkpt lat="48.94981" lon="-0.50314">
        <ele>31.6</ele>
        <time>2018-07-10T10:49:53Z</time>
      </trkpt>
      <trkpt lat="48.95024" lon="-0.50332">
        <ele>32.1</ele>
        <time>2018-07-10T10:49:53Z</time>
      </trkpt>
      <trkpt lat="48.95051" lon="-0.50341">
        <ele>34</ele>
        <time>2018-07-10T10:49:53Z</time>
      </trkpt>
      <trkpt lat="48.95071" lon="-0.50348">
        <ele>34.2</ele>
        <time>2018-07-10T10:49:53Z</time>
      </trkpt>
      <trkpt lat="48.9509" lon="-0.5035">
        <ele>34.5</ele>
        <time>2018-07-10T10:49:53Z</time>
      </trkpt>
      <trkpt lat="48.95111" lon="-0.50351">
        <ele>34.7</ele>
        <time>2018-07-10T10:49:53Z</time>
      </trkpt>
      <trkpt lat="48.95127" lon="-0.5035">
        <ele>33.9</ele>
        <time>2018-07-10T10:49:53Z</time>
      </trkpt>
      <trkpt lat="48.95143" lon="-0.50348">
        <ele>33.3</ele>
        <time>2018-07-10T10:49:53Z</time>
      </trkpt>
      <trkpt lat="48.9516" lon="-0.50343">
        <ele>33.4</ele>
        <time>2018-07-10T10:49:53Z</time>
      </trkpt>
      <trkpt lat="48.9518" lon="-0.50337">
        <ele>33.9</ele>
        <time>2018-07-10T10:49:53Z</time>
      </trkpt>
      <trkpt lat="48.95207" lon="-0.50326">
        <ele>34.7</ele>
        <time>2018-07-10T10:49:53Z</time>
      </trkpt>
      <trkpt lat="48.95233" lon="-0.50308">
        <ele>35</ele>
        <time>2018-07-10T10:49:53Z</time>
      </trkpt>
      <trkpt lat="48.95255" lon="-0.50288">
        <ele>35.9</ele>
        <time>2018-07-10T10:49:53Z</time>
      </trkpt>
      <trkpt lat="48.95282" lon="-0.50258">
        <ele>35.3</ele>
        <time>2018-07-10T10:49:53Z</time>
      </trkpt>
    </trkseg>
  </trk>
  <trk>
    <name><![CDATA[Paths/Thury_conde]]></name>
    <trkseg>
      <trkpt lat="48.95291" lon="-0.50247">
        <ele>35.7</ele>
        <time>2018-07-10T10:49:53Z</time>
      </trkpt>
      <trkpt lat="48.95282" lon="-0.50258">
        <ele>35.3</ele>
        <time>2018-07-10T10:49:53Z</time>
      </trkpt>
    </trkseg>
  </trk>
  <trk>
    <name><![CDATA[Paths/Thury_conde]]></name>
    <trkseg>
      <trkpt lat="48.95291" lon="-0.50247">
        <ele>35.7</ele>
        <time>2018-07-10T10:49:53Z</time>
      </trkpt>
      <trkpt lat="48.95304" lon="-0.5023">
        <ele>35.1</ele>
        <time>2018-07-10T10:49:53Z</time>
      </trkpt>
      <trkpt lat="48.95319" lon="-0.50206">
        <ele>35.8</ele>
        <time>2018-07-10T10:49:53Z</time>
      </trkpt>
      <trkpt lat="48.95331" lon="-0.50183">
        <ele>35.1</ele>
        <time>2018-07-10T10:49:53Z</time>
      </trkpt>
      <trkpt lat="48.95337" lon="-0.50171">
        <ele>35.3</ele>
        <time>2018-07-10T10:49:53Z</time>
      </trkpt>
      <trkpt lat="48.95348" lon="-0.50148">
        <ele>35.5</ele>
        <time>2018-07-10T10:49:53Z</time>
      </trkpt>
      <trkpt lat="48.95355" lon="-0.50125">
        <ele>35</ele>
        <time>2018-07-10T10:49:53Z</time>
      </trkpt>
      <trkpt lat="48.95361" lon="-0.50101">
        <ele>34</ele>
        <time>2018-07-10T10:49:53Z</time>
      </trkpt>
      <trkpt lat="48.95368" lon="-0.50066">
        <ele>32.7</ele>
        <time>2018-07-10T10:49:53Z</time>
      </trkpt>
      <trkpt lat="48.95376" lon="-0.50027">
        <ele>30.9</ele>
        <time>2018-07-10T10:49:53Z</time>
      </trkpt>
      <trkpt lat="48.95382" lon="-0.49985">
        <ele>32.4</ele>
        <time>2018-07-10T10:49:53Z</time>
      </trkpt>
      <trkpt lat="48.95391" lon="-0.49925">
        <ele>29.1</ele>
        <time>2018-07-10T10:49:53Z</time>
      </trkpt>
      <trkpt lat="48.95402" lon="-0.49854">
        <ele>28.3</ele>
        <time>2018-07-10T10:49:53Z</time>
      </trkpt>
      <trkpt lat="48.95419" lon="-0.4974">
        <ele>32.3</ele>
        <time>2018-07-10T10:49:53Z</time>
      </trkpt>
      <trkpt lat="48.95446" lon="-0.49566">
        <ele>32.4</ele>
        <time>2018-07-10T10:49:53Z</time>
      </trkpt>
      <trkpt lat="48.95462" lon="-0.49455">
        <ele>31.8</ele>
        <time>2018-07-10T10:49:53Z</time>
      </trkpt>
      <trkpt lat="48.95478" lon="-0.49356">
        <ele>31.8</ele>
        <time>2018-07-10T10:49:53Z</time>
      </trkpt>
      <trkpt lat="48.95492" lon="-0.49278">
        <ele>31.4</ele>
        <time>2018-07-10T10:49:53Z</time>
      </trkpt>
      <trkpt lat="48.95505" lon="-0.49221">
        <ele>32</ele>
        <time>2018-07-10T10:49:53Z</time>
      </trkpt>
      <trkpt lat="48.95515" lon="-0.49178">
        <ele>31.3</ele>
        <time>2018-07-10T10:49:53Z</time>
      </trkpt>
      <trkpt lat="48.95534" lon="-0.49115">
        <ele>31.3</ele>
        <time>2018-07-10T10:49:53Z</time>
      </trkpt>
      <trkpt lat="48.95551" lon="-0.49069">
        <ele>31.7</ele>
        <time>2018-07-10T10:49:53Z</time>
      </trkpt>
      <trkpt lat="48.95572" lon="-0.4902">
        <ele>31.6</ele>
        <time>2018-07-10T10:49:53Z</time>
      </trkpt>
      <trkpt lat="48.95597" lon="-0.4897">
        <ele>31.5</ele>
        <time>2018-07-10T10:49:53Z</time>
      </trkpt>
      <trkpt lat="48.95626" lon="-0.48917">
        <ele>31.5</ele>
        <time>2018-07-10T10:49:53Z</time>
      </trkpt>
      <trkpt lat="48.95654" lon="-0.48866">
        <ele>32</ele>
        <time>2018-07-10T10:49:53Z</time>
      </trkpt>
      <trkpt lat="48.95698" lon="-0.48791">
        <ele>31.5</ele>
        <time>2018-07-10T10:49:53Z</time>
      </trkpt>
      <trkpt lat="48.95792" lon="-0.4863">
        <ele>31</ele>
        <time>2018-07-10T10:49:53Z</time>
      </trkpt>
      <trkpt lat="48.95878" lon="-0.48484">
        <ele>30.1</ele>
        <time>2018-07-10T10:49:53Z</time>
      </trkpt>
      <trkpt lat="48.95914" lon="-0.48419">
        <ele>31.7</ele>
        <time>2018-07-10T10:49:53Z</time>
      </trkpt>
      <trkpt lat="48.95957" lon="-0.48347">
        <ele>32.1</ele>
        <time>2018-07-10T10:49:53Z</time>
      </trkpt>
      <trkpt lat="48.95972" lon="-0.48321">
        <ele>32.1</ele>
        <time>2018-07-10T10:49:53Z</time>
      </trkpt>
      <trkpt lat="48.95992" lon="-0.48289">
        <ele>33.4</ele>
        <time>2018-07-10T10:49:53Z</time>
      </trkpt>
      <trkpt lat="48.96021" lon="-0.48242">
        <ele>32.8</ele>
        <time>2018-07-10T10:49:53Z</time>
      </trkpt>
      <trkpt lat="48.96037" lon="-0.48219">
        <ele>33.4</ele>
        <time>2018-07-10T10:49:53Z</time>
      </trkpt>
      <trkpt lat="48.96058" lon="-0.48194">
        <ele>33.2</ele>
        <time>2018-07-10T10:49:53Z</time>
      </trkpt>
      <trkpt lat="48.96111" lon="-0.48138">
        <ele>31.9</ele>
        <time>2018-07-10T10:49:53Z</time>
      </trkpt>
      <trkpt lat="48.96147" lon="-0.48113">
        <ele>32.4</ele>
        <time>2018-07-10T10:49:53Z</time>
      </trkpt>
      <trkpt lat="48.96152" lon="-0.48109">
        <ele>32.3</ele>
        <time>2018-07-10T10:49:53Z</time>
      </trkpt>
      <trkpt lat="48.96184" lon="-0.48091">
        <ele>31.7</ele>
        <time>2018-07-10T10:49:53Z</time>
      </trkpt>
      <trkpt lat="48.96211" lon="-0.48078">
        <ele>32</ele>
        <time>2018-07-10T10:49:53Z</time>
      </trkpt>
      <trkpt lat="48.96244" lon="-0.48066">
        <ele>31.9</ele>
        <time>2018-07-10T10:49:53Z</time>
      </trkpt>
      <trkpt lat="48.96273" lon="-0.48058">
        <ele>32.8</ele>
        <time>2018-07-10T10:49:53Z</time>
      </trkpt>
      <trkpt lat="48.96307" lon="-0.48054">
        <ele>32.8</ele>
        <time>2018-07-10T10:49:53Z</time>
      </trkpt>
      <trkpt lat="48.96335" lon="-0.48054">
        <ele>32.9</ele>
        <time>2018-07-10T10:49:53Z</time>
      </trkpt>
      <trkpt lat="48.96364" lon="-0.48056">
        <ele>33.1</ele>
        <time>2018-07-10T10:49:53Z</time>
      </trkpt>
      <trkpt lat="48.96468" lon="-0.48078">
        <ele>33.3</ele>
        <time>2018-07-10T10:49:53Z</time>
      </trkpt>
      <trkpt lat="48.96761" lon="-0.48148">
        <ele>33.6</ele>
        <time>2018-07-10T10:49:53Z</time>
      </trkpt>
      <trkpt lat="48.96822" lon="-0.48164">
        <ele>33.5</ele>
        <time>2018-07-10T10:49:53Z</time>
      </trkpt>
      <trkpt lat="48.9689" lon="-0.48181">
        <ele>34</ele>
        <time>2018-07-10T10:49:53Z</time>
      </trkpt>
      <trkpt lat="48.97141" lon="-0.48242">
        <ele>29.8</ele>
        <time>2018-07-10T10:49:53Z</time>
      </trkpt>
      <trkpt lat="48.97164" lon="-0.48248">
        <ele>30.7</ele>
        <time>2018-07-10T10:49:53Z</time>
      </trkpt>
      <trkpt lat="48.9719" lon="-0.48254">
        <ele>30.1</ele>
        <time>2018-07-10T10:49:53Z</time>
      </trkpt>
      <trkpt lat="48.97195" lon="-0.48255">
        <ele>30</ele>
        <time>2018-07-10T10:49:53Z</time>
      </trkpt>
      <trkpt lat="48.97243" lon="-0.48263">
        <ele>29</ele>
        <time>2018-07-10T10:49:53Z</time>
      </trkpt>
      <trkpt lat="48.97264" lon="-0.48264">
        <ele>28.7</ele>
        <time>2018-07-10T10:49:53Z</time>
      </trkpt>
      <trkpt lat="48.97309" lon="-0.4826">
        <ele>28.1</ele>
        <time>2018-07-10T10:49:53Z</time>
      </trkpt>
      <trkpt lat="48.97335" lon="-0.48253">
        <ele>29.6</ele>
        <time>2018-07-10T10:49:53Z</time>
      </trkpt>
      <trkpt lat="48.97361" lon="-0.48243">
        <ele>28.2</ele>
        <time>2018-07-10T10:49:53Z</time>
      </trkpt>
      <trkpt lat="48.97388" lon="-0.48229">
        <ele>28.5</ele>
        <time>2018-07-10T10:49:53Z</time>
      </trkpt>
      <trkpt lat="48.97415" lon="-0.48213">
        <ele>28.3</ele>
        <time>2018-07-10T10:49:53Z</time>
      </trkpt>
      <trkpt lat="48.97513" lon="-0.48141">
        <ele>26.7</ele>
        <time>2018-07-10T10:49:53Z</time>
      </trkpt>
      <trkpt lat="48.97545" lon="-0.48119">
        <ele>28.1</ele>
        <time>2018-07-10T10:49:53Z</time>
      </trkpt>
      <trkpt lat="48.97573" lon="-0.48103">
        <ele>28.4</ele>
        <time>2018-07-10T10:49:53Z</time>
      </trkpt>
      <trkpt lat="48.97577" lon="-0.48101">
        <ele>28.2</ele>
        <time>2018-07-10T10:49:53Z</time>
      </trkpt>
      <trkpt lat="48.97596" lon="-0.48092">
        <ele>28.2</ele>
        <time>2018-07-10T10:49:53Z</time>
      </trkpt>
      <trkpt lat="48.97627" lon="-0.48083">
        <ele>29.6</ele>
        <time>2018-07-10T10:49:53Z</time>
      </trkpt>
      <trkpt lat="48.97653" lon="-0.48078">
        <ele>29.9</ele>
        <time>2018-07-10T10:49:53Z</time>
      </trkpt>
      <trkpt lat="48.9768" lon="-0.48077">
        <ele>30</ele>
        <time>2018-07-10T10:49:53Z</time>
      </trkpt>
      <trkpt lat="48.97711" lon="-0.4808">
        <ele>30.1</ele>
        <time>2018-07-10T10:49:53Z</time>
      </trkpt>
      <trkpt lat="48.97746" lon="-0.48086">
        <ele>29.9</ele>
        <time>2018-07-10T10:49:53Z</time>
      </trkpt>
      <trkpt lat="48.97771" lon="-0.48091">
        <ele>29.9</ele>
        <time>2018-07-10T10:49:53Z</time>
      </trkpt>
      <trkpt lat="48.97826" lon="-0.48102">
        <ele>29.3</ele>
        <time>2018-07-10T10:49:53Z</time>
      </trkpt>
      <trkpt lat="48.97889" lon="-0.48114">
        <ele>30</ele>
        <time>2018-07-10T10:49:53Z</time>
      </trkpt>
      <trkpt lat="48.97959" lon="-0.48133">
        <ele>29.2</ele>
        <time>2018-07-10T10:49:53Z</time>
      </trkpt>
      <trkpt lat="48.98028" lon="-0.48148">
        <ele>29</ele>
        <time>2018-07-10T10:49:53Z</time>
      </trkpt>
      <trkpt lat="48.98434" lon="-0.48236">
        <ele>26</ele>
        <time>2018-07-10T10:49:53Z</time>
      </trkpt>
    </trkseg>
  </trk>
  <trk>
    <name><![CDATA[Paths/Thury_conde]]></name>
    <trkseg>
      <trkpt lat="48.98434" lon="-0.48236">
        <ele>26</ele>
        <time>2018-07-10T10:49:53Z</time>
      </trkpt>
      <trkpt lat="48.9851" lon="-0.48247">
        <ele>26.8</ele>
        <time>2018-07-10T10:49:53Z</time>
      </trkpt>
      <trkpt lat="48.98651" lon="-0.48235">
        <ele>25.8</ele>
        <time>2018-07-10T10:49:53Z</time>
      </trkpt>
      <trkpt lat="48.9879" lon="-0.4819">
        <ele>28.8</ele>
        <time>2018-07-10T10:49:53Z</time>
      </trkpt>
      <trkpt lat="48.98862" lon="-0.48166">
        <ele>27</ele>
        <time>2018-07-10T10:49:53Z</time>
      </trkpt>
      <trkpt lat="48.98887" lon="-0.48162">
        <ele>26.8</ele>
        <time>2018-07-10T10:49:53Z</time>
      </trkpt>
      <trkpt lat="48.98926" lon="-0.48163">
        <ele>27</ele>
        <time>2018-07-10T10:49:53Z</time>
      </trkpt>
    </trkseg>
  </trk>
  <trk>
    <name><![CDATA[Thury_conde]]></name>
    <trkseg>
      <trkpt lat="48.90556" lon="-0.46782">
        <ele>65</ele>
        <time>2018-07-10T06:49:39Z</time>
      </trkpt>
      <trkpt lat="48.90579" lon="-0.46829">
        <ele>64.9</ele>
        <time>2018-07-10T06:49:39Z</time>
      </trkpt>
      <trkpt lat="48.90612" lon="-0.46887">
        <ele>64</ele>
        <time>2018-07-10T06:49:39Z</time>
      </trkpt>
      <trkpt lat="48.90621" lon="-0.46902">
        <ele>63</ele>
        <time>2018-07-10T06:49:39Z</time>
      </trkpt>
      <trkpt lat="48.90655" lon="-0.46949">
        <ele>61.9</ele>
        <time>2018-07-10T06:49:39Z</time>
      </trkpt>
      <trkpt lat="48.90689" lon="-0.46989">
        <ele>60.5</ele>
        <time>2018-07-10T06:49:39Z</time>
      </trkpt>
      <trkpt lat="48.90724" lon="-0.47021">
        <ele>60.4</ele>
        <time>2018-07-10T06:49:39Z</time>
      </trkpt>
      <trkpt lat="48.90753" lon="-0.47047">
        <ele>58.9</ele>
        <time>2018-07-10T06:49:39Z</time>
      </trkpt>
      <trkpt lat="48.90785" lon="-0.47069">
        <ele>57.9</ele>
        <time>2018-07-10T06:49:39Z</time>
      </trkpt>
      <trkpt lat="48.90819" lon="-0.47089">
        <ele>58.8</ele>
        <time>2018-07-10T06:49:39Z</time>
      </trkpt>
      <trkpt lat="48.9087" lon="-0.47114">
        <ele>54.8</ele>
        <time>2018-07-10T06:49:39Z</time>
      </trkpt>
      <trkpt lat="48.90898" lon="-0.47127">
        <ele>42.2</ele>
        <time>2018-07-10T06:49:39Z</time>
      </trkpt>
      <trkpt lat="48.90975" lon="-0.47163">
        <ele>38</ele>
        <time>2018-07-10T06:49:39Z</time>
      </trkpt>
      <trkpt lat="48.91003" lon="-0.47177">
        <ele>51.8</ele>
        <time>2018-07-10T06:49:39Z</time>
      </trkpt>
      <trkpt lat="48.91049" lon="-0.47198">
        <ele>57</ele>
        <time>2018-07-10T06:49:39Z</time>
      </trkpt>
      <trkpt lat="48.91099" lon="-0.47225">
        <ele>57.5</ele>
        <time>2018-07-10T06:49:39Z</time>
      </trkpt>
      <trkpt lat="48.91159" lon="-0.47248">
        <ele>56.9</ele>
        <time>2018-07-10T06:49:39Z</time>
      </trkpt>
      <trkpt lat="48.912" lon="-0.47256">
        <ele>55.5</ele>
        <time>2018-07-10T06:49:39Z</time>
      </trkpt>
      <trkpt lat="48.91229" lon="-0.4726">
        <ele>54.7</ele>
        <time>2018-07-10T06:49:39Z</time>
      </trkpt>
      <trkpt lat="48.91262" lon="-0.47261">
        <ele>53.5</ele>
        <time>2018-07-10T06:49:39Z</time>
      </trkpt>
      <trkpt lat="48.91283" lon="-0.47259">
        <ele>52.9</ele>
        <time>2018-07-10T06:49:39Z</time>
      </trkpt>
      <trkpt lat="48.91307" lon="-0.47257">
        <ele>51.5</ele>
        <time>2018-07-10T06:49:39Z</time>
      </trkpt>
      <trkpt lat="48.91352" lon="-0.47252">
        <ele>52.5</ele>
        <time>2018-07-10T06:49:39Z</time>
      </trkpt>
      <trkpt lat="48.91387" lon="-0.47248">
        <ele>51.7</ele>
        <time>2018-07-10T06:49:39Z</time>
      </trkpt>
      <trkpt lat="48.91461" lon="-0.47239">
        <ele>48.4</ele>
        <time>2018-07-10T06:49:39Z</time>
      </trkpt>
      <trkpt lat="48.91548" lon="-0.47231">
        <ele>49.1</ele>
        <time>2018-07-10T06:49:39Z</time>
      </trkpt>
      <trkpt lat="48.9163" lon="-0.4722">
        <ele>49.1</ele>
        <time>2018-07-10T06:49:39Z</time>
      </trkpt>
      <trkpt lat="48.91711" lon="-0.47206">
        <ele>45.8</ele>
        <time>2018-07-10T06:49:39Z</time>
      </trkpt>
      <trkpt lat="48.91712" lon="-0.47206">
        <ele>45.9</ele>
        <time>2018-07-10T06:49:39Z</time>
      </trkpt>
      <trkpt lat="48.91716" lon="-0.47205">
        <ele>45.9</ele>
        <time>2018-07-10T06:49:39Z</time>
      </trkpt>
      <trkpt lat="48.91783" lon="-0.472">
        <ele>46.9</ele>
        <time>2018-07-10T06:49:39Z</time>
      </trkpt>
      <trkpt lat="48.91793" lon="-0.47198">
        <ele>46.9</ele>
        <time>2018-07-10T06:49:39Z</time>
      </trkpt>
      <trkpt lat="48.91874" lon="-0.47185">
        <ele>45.9</ele>
        <time>2018-07-10T06:49:39Z</time>
      </trkpt>
      <trkpt lat="48.91951" lon="-0.47175">
        <ele>45.4</ele>
        <time>2018-07-10T06:49:39Z</time>
      </trkpt>
      <trkpt lat="48.92019" lon="-0.47163">
        <ele>45.5</ele>
        <time>2018-07-10T06:49:39Z</time>
      </trkpt>
      <trkpt lat="48.92085" lon="-0.47143">
        <ele>43.7</ele>
        <time>2018-07-10T06:49:39Z</time>
      </trkpt>
      <trkpt lat="48.9216" lon="-0.4712">
        <ele>41.7</ele>
        <time>2018-07-10T06:49:39Z</time>
      </trkpt>
      <trkpt lat="48.92234" lon="-0.47096">
        <ele>40.8</ele>
        <time>2018-07-10T06:49:39Z</time>
      </trkpt>
      <trkpt lat="48.92305" lon="-0.47069">
        <ele>41.1</ele>
        <time>2018-07-10T06:49:39Z</time>
      </trkpt>
      <trkpt lat="48.92371" lon="-0.47049">
        <ele>41.1</ele>
        <time>2018-07-10T06:49:39Z</time>
      </trkpt>
      <trkpt lat="48.92433" lon="-0.47032">
        <ele>40.7</ele>
        <time>2018-07-10T06:49:39Z</time>
      </trkpt>
      <trkpt lat="48.92478" lon="-0.47022">
        <ele>41.6</ele>
        <time>2018-07-10T06:49:39Z</time>
      </trkpt>
      <trkpt lat="48.92503" lon="-0.47021">
        <ele>42.6</ele>
        <time>2018-07-10T06:49:39Z</time>
      </trkpt>
      <trkpt lat="48.9253" lon="-0.47023">
        <ele>43.9</ele>
        <time>2018-07-10T06:49:39Z</time>
      </trkpt>
      <trkpt lat="48.92559" lon="-0.47026">
        <ele>41.6</ele>
        <time>2018-07-10T06:49:39Z</time>
      </trkpt>
      <trkpt lat="48.92596" lon="-0.47037">
        <ele>42.6</ele>
        <time>2018-07-10T06:49:39Z</time>
      </trkpt>
      <trkpt lat="48.92636" lon="-0.47056">
        <ele>40.2</ele>
        <time>2018-07-10T06:49:39Z</time>
      </trkpt>
      <trkpt lat="48.92671" lon="-0.47083">
        <ele>40.8</ele>
        <time>2018-07-10T06:49:39Z</time>
      </trkpt>
      <trkpt lat="48.92711" lon="-0.47132">
        <ele>39</ele>
        <time>2018-07-10T06:49:39Z</time>
      </trkpt>
      <trkpt lat="48.9274" lon="-0.47173">
        <ele>37.1</ele>
        <time>2018-07-10T06:49:39Z</time>
      </trkpt>
      <trkpt lat="48.92767" lon="-0.47222">
        <ele>35</ele>
        <time>2018-07-10T06:49:39Z</time>
      </trkpt>
      <trkpt lat="48.92791" lon="-0.47283">
        <ele>35.1</ele>
        <time>2018-07-10T06:49:39Z</time>
      </trkpt>
      <trkpt lat="48.9281" lon="-0.47346">
        <ele>36.8</ele>
        <time>2018-07-10T06:49:39Z</time>
      </trkpt>
      <trkpt lat="48.92819" lon="-0.47402">
        <ele>34.8</ele>
        <time>2018-07-10T06:49:39Z</time>
      </trkpt>
      <trkpt lat="48.92824" lon="-0.47433">
        <ele>34.3</ele>
        <time>2018-07-10T06:49:39Z</time>
      </trkpt>
      <trkpt lat="48.92825" lon="-0.4749">
        <ele>35.9</ele>
        <time>2018-07-10T06:49:39Z</time>
      </trkpt>
      <trkpt lat="48.92821" lon="-0.47559">
        <ele>41.4</ele>
        <time>2018-07-10T06:49:39Z</time>
      </trkpt>
      <trkpt lat="48.9281" lon="-0.47642">
        <ele>41.1</ele>
        <time>2018-07-10T06:49:39Z</time>
      </trkpt>
      <trkpt lat="48.92793" lon="-0.47728">
        <ele>42.2</ele>
        <time>2018-07-10T06:49:39Z</time>
      </trkpt>
      <trkpt lat="48.92781" lon="-0.47792">
        <ele>40</ele>
        <time>2018-07-10T06:49:39Z</time>
      </trkpt>
      <trkpt lat="48.92773" lon="-0.47832">
        <ele>37.3</ele>
        <time>2018-07-10T06:49:39Z</time>
      </trkpt>
      <trkpt lat="48.92764" lon="-0.47908">
        <ele>37</ele>
        <time>2018-07-10T06:49:39Z</time>
      </trkpt>
      <trkpt lat="48.92762" lon="-0.47954">
        <ele>37.9</ele>
        <time>2018-07-10T06:49:39Z</time>
      </trkpt>
      <trkpt lat="48.92763" lon="-0.48014">
        <ele>38.9</ele>
        <time>2018-07-10T06:49:39Z</time>
      </trkpt>
      <trkpt lat="48.92766" lon="-0.48087">
        <ele>38.9</ele>
        <time>2018-07-10T06:49:39Z</time>
      </trkpt>
      <trkpt lat="48.9277" lon="-0.48186">
        <ele>40.6</ele>
        <time>2018-07-10T06:49:39Z</time>
      </trkpt>
      <trkpt lat="48.92775" lon="-0.48291">
        <ele>39.9</ele>
        <time>2018-07-10T06:49:39Z</time>
      </trkpt>
      <trkpt lat="48.92782" lon="-0.48422">
        <ele>39.6</ele>
        <time>2018-07-10T06:49:39Z</time>
      </trkpt>
      <trkpt lat="48.92788" lon="-0.48545">
        <ele>37.6</ele>
        <time>2018-07-10T06:49:39Z</time>
      </trkpt>
      <trkpt lat="48.92795" lon="-0.48677">
        <ele>38.8</ele>
        <time>2018-07-10T06:49:39Z</time>
      </trkpt>
      <trkpt lat="48.92801" lon="-0.48763">
        <ele>41.5</ele>
        <time>2018-07-10T06:49:39Z</time>
      </trkpt>
      <trkpt lat="48.92806" lon="-0.48868">
        <ele>42</ele>
        <time>2018-07-10T06:49:39Z</time>
      </trkpt>
      <trkpt lat="48.92811" lon="-0.48978">
        <ele>42.4</ele>
        <time>2018-07-10T06:49:39Z</time>
      </trkpt>
      <trkpt lat="48.9282" lon="-0.49138">
        <ele>43.1</ele>
        <time>2018-07-10T06:49:39Z</time>
      </trkpt>
      <trkpt lat="48.92828" lon="-0.49302">
        <ele>41.6</ele>
        <time>2018-07-10T06:49:39Z</time>
      </trkpt>
      <trkpt lat="48.92835" lon="-0.49444">
        <ele>41.1</ele>
        <time>2018-07-10T06:49:39Z</time>
      </trkpt>
      <trkpt lat="48.92842" lon="-0.49587">
        <ele>39.9</ele>
        <time>2018-07-10T06:49:39Z</time>
      </trkpt>
      <trkpt lat="48.9285" lon="-0.49734">
        <ele>40.1</ele>
        <time>2018-07-10T06:49:39Z</time>
      </trkpt>
      <trkpt lat="48.92858" lon="-0.49894">
        <ele>38.4</ele>
        <time>2018-07-10T06:49:39Z</time>
      </trkpt>
      <trkpt lat="48.92864" lon="-0.49967">
        <ele>37.9</ele>
        <time>2018-07-10T06:49:39Z</time>
      </trkpt>
      <trkpt lat="48.92869" lon="-0.50022">
        <ele>37.9</ele>
        <time>2018-07-10T06:49:39Z</time>
      </trkpt>
      <trkpt lat="48.92882" lon="-0.50097">
        <ele>37.4</ele>
        <time>2018-07-10T06:49:39Z</time>
      </trkpt>
      <trkpt lat="48.92895" lon="-0.50176">
        <ele>37.5</ele>
        <time>2018-07-10T06:49:39Z</time>
      </trkpt>
      <trkpt lat="48.92906" lon="-0.50248">
        <ele>35.2</ele>
        <time>2018-07-10T06:49:39Z</time>
      </trkpt>
      <trkpt lat="48.92921" lon="-0.50341">
        <ele>35.9</ele>
        <time>2018-07-10T06:49:39Z</time>
      </trkpt>
      <trkpt lat="48.92934" lon="-0.50433">
        <ele>35.8</ele>
        <time>2018-07-10T06:49:39Z</time>
      </trkpt>
      <trkpt lat="48.92946" lon="-0.50538">
        <ele>36.7</ele>
        <time>2018-07-10T06:49:39Z</time>
      </trkpt>
      <trkpt lat="48.9296" lon="-0.50651">
        <ele>34.3</ele>
        <time>2018-07-10T06:49:39Z</time>
      </trkpt>
      <trkpt lat="48.92973" lon="-0.50715">
        <ele>36.7</ele>
        <time>2018-07-10T06:49:39Z</time>
      </trkpt>
      <trkpt lat="48.9299" lon="-0.50776">
        <ele>41.1</ele>
        <time>2018-07-10T06:49:39Z</time>
      </trkpt>
      <trkpt lat="48.93016" lon="-0.50846">
        <ele>44.9</ele>
        <time>2018-07-10T06:49:39Z</time>
      </trkpt>
      <trkpt lat="48.93052" lon="-0.50909">
        <ele>40.3</ele>
        <time>2018-07-10T06:49:39Z</time>
      </trkpt>
      <trkpt lat="48.93084" lon="-0.50955">
        <ele>39.6</ele>
        <time>2018-07-10T06:49:39Z</time>
      </trkpt>
      <trkpt lat="48.93119" lon="-0.50999">
        <ele>38.5</ele>
        <time>2018-07-10T06:49:39Z</time>
      </trkpt>
      <trkpt lat="48.93146" lon="-0.51024">
        <ele>36.2</ele>
        <time>2018-07-10T06:49:39Z</time>
      </trkpt>
      <trkpt lat="48.93187" lon="-0.51044">
        <ele>35.3</ele>
        <time>2018-07-10T06:49:39Z</time>
      </trkpt>
      <trkpt lat="48.93216" lon="-0.51058">
        <ele>34.9</ele>
        <time>2018-07-10T06:49:39Z</time>
      </trkpt>
      <trkpt lat="48.93245" lon="-0.51067">
        <ele>34</ele>
        <time>2018-07-10T06:49:39Z</time>
      </trkpt>
      <trkpt lat="48.93272" lon="-0.51072">
        <ele>34.3</ele>
        <time>2018-07-10T06:49:39Z</time>
      </trkpt>
      <trkpt lat="48.93298" lon="-0.51077">
        <ele>35.1</ele>
        <time>2018-07-10T06:49:39Z</time>
      </trkpt>
      <trkpt lat="48.93325" lon="-0.51077">
        <ele>34.5</ele>
        <time>2018-07-10T06:49:39Z</time>
      </trkpt>
      <trkpt lat="48.93359" lon="-0.51073">
        <ele>32.7</ele>
        <time>2018-07-10T06:49:39Z</time>
      </trkpt>
      <trkpt lat="48.93382" lon="-0.51067">
        <ele>33.6</ele>
        <time>2018-07-10T06:49:39Z</time>
      </trkpt>
      <trkpt lat="48.93408" lon="-0.51058">
        <ele>35.1</ele>
        <time>2018-07-10T06:49:39Z</time>
      </trkpt>
      <trkpt lat="48.9343" lon="-0.51046">
        <ele>34.2</ele>
        <time>2018-07-10T06:49:39Z</time>
      </trkpt>
      <trkpt lat="48.93458" lon="-0.5103">
        <ele>34.4</ele>
        <time>2018-07-10T06:49:39Z</time>
      </trkpt>
      <trkpt lat="48.93489" lon="-0.51007">
        <ele>34.2</ele>
        <time>2018-07-10T06:49:39Z</time>
      </trkpt>
      <trkpt lat="48.9353" lon="-0.50968">
        <ele>35.2</ele>
        <time>2018-07-10T06:49:39Z</time>
      </trkpt>
      <trkpt lat="48.93589" lon="-0.50907">
        <ele>34.4</ele>
        <time>2018-07-10T06:49:39Z</time>
      </trkpt>
      <trkpt lat="48.93662" lon="-0.50832">
        <ele>36.4</ele>
        <time>2018-07-10T06:49:39Z</time>
      </trkpt>
      <trkpt lat="48.93698" lon="-0.50796">
        <ele>36.8</ele>
        <time>2018-07-10T06:49:39Z</time>
      </trkpt>
      <trkpt lat="48.93773" lon="-0.50718">
        <ele>37.5</ele>
        <time>2018-07-10T06:49:39Z</time>
      </trkpt>
      <trkpt lat="48.93813" lon="-0.50677">
        <ele>37.9</ele>
        <time>2018-07-10T06:49:39Z</time>
      </trkpt>
      <trkpt lat="48.93906" lon="-0.5058">
        <ele>37.5</ele>
        <time>2018-07-10T06:49:39Z</time>
      </trkpt>
      <trkpt lat="48.93994" lon="-0.50493">
        <ele>37.1</ele>
        <time>2018-07-10T06:49:39Z</time>
      </trkpt>
      <trkpt lat="48.94072" lon="-0.50415">
        <ele>37.4</ele>
        <time>2018-07-10T06:49:39Z</time>
      </trkpt>
      <trkpt lat="48.94131" lon="-0.50354">
        <ele>37.2</ele>
        <time>2018-07-10T06:49:39Z</time>
      </trkpt>
      <trkpt lat="48.94204" lon="-0.50277">
        <ele>37</ele>
        <time>2018-07-10T06:49:39Z</time>
      </trkpt>
      <trkpt lat="48.94263" lon="-0.50214">
        <ele>37.5</ele>
        <time>2018-07-10T06:49:39Z</time>
      </trkpt>
      <trkpt lat="48.94289" lon="-0.50189">
        <ele>37.8</ele>
        <time>2018-07-10T06:49:39Z</time>
      </trkpt>
      <trkpt lat="48.94308" lon="-0.50174">
        <ele>37.7</ele>
        <time>2018-07-10T06:49:39Z</time>
      </trkpt>
      <trkpt lat="48.94341" lon="-0.50157">
        <ele>37.2</ele>
        <time>2018-07-10T06:49:39Z</time>
      </trkpt>
      <trkpt lat="48.94363" lon="-0.5015">
        <ele>37.2</ele>
        <time>2018-07-10T06:49:39Z</time>
      </trkpt>
      <trkpt lat="48.94385" lon="-0.50144">
        <ele>37</ele>
        <time>2018-07-10T06:49:39Z</time>
      </trkpt>
      <trkpt lat="48.94406" lon="-0.5014">
        <ele>36.9</ele>
        <time>2018-07-10T06:49:39Z</time>
      </trkpt>
      <trkpt lat="48.94427" lon="-0.50142">
        <ele>36.5</ele>
        <time>2018-07-10T06:49:39Z</time>
      </trkpt>
      <trkpt lat="48.94443" lon="-0.50145">
        <ele>36</ele>
        <time>2018-07-10T06:49:39Z</time>
      </trkpt>
      <trkpt lat="48.94446" lon="-0.50146">
        <ele>36.1</ele>
        <time>2018-07-10T06:49:39Z</time>
      </trkpt>
      <trkpt lat="48.94466" lon="-0.50153">
        <ele>37.5</ele>
        <time>2018-07-10T06:49:39Z</time>
      </trkpt>
      <trkpt lat="48.94501" lon="-0.50167">
        <ele>36.1</ele>
        <time>2018-07-10T06:49:39Z</time>
      </trkpt>
      <trkpt lat="48.94523" lon="-0.50177">
        <ele>36.5</ele>
        <time>2018-07-10T06:49:39Z</time>
      </trkpt>
      <trkpt lat="48.94559" lon="-0.50198">
        <ele>34.8</ele>
        <time>2018-07-10T06:49:39Z</time>
      </trkpt>
      <trkpt lat="48.94598" lon="-0.50222">
        <ele>36.3</ele>
        <time>2018-07-10T06:49:39Z</time>
      </trkpt>
      <trkpt lat="48.94633" lon="-0.50244">
        <ele>37.3</ele>
        <time>2018-07-10T06:49:39Z</time>
      </trkpt>
      <trkpt lat="48.94656" lon="-0.50256">
        <ele>35.7</ele>
        <time>2018-07-10T06:49:39Z</time>
      </trkpt>
      <trkpt lat="48.94677" lon="-0.50263">
        <ele>35.5</ele>
        <time>2018-07-10T06:49:39Z</time>
      </trkpt>
      <trkpt lat="48.94695" lon="-0.50265">
        <ele>36</ele>
        <time>2018-07-10T06:49:39Z</time>
      </trkpt>
      <trkpt lat="48.94717" lon="-0.50266">
        <ele>36.3</ele>
        <time>2018-07-10T06:49:39Z</time>
      </trkpt>
      <trkpt lat="48.94771" lon="-0.50266">
        <ele>31.2</ele>
        <time>2018-07-10T06:49:39Z</time>
      </trkpt>
      <trkpt lat="48.94805" lon="-0.50268">
        <ele>31</ele>
        <time>2018-07-10T06:49:39Z</time>
      </trkpt>
      <trkpt lat="48.94834" lon="-0.50269">
        <ele>31.6</ele>
        <time>2018-07-10T06:49:39Z</time>
      </trkpt>
      <trkpt lat="48.94856" lon="-0.50271">
        <ele>31.3</ele>
        <time>2018-07-10T06:49:39Z</time>
      </trkpt>
      <trkpt lat="48.94877" lon="-0.50275">
        <ele>32.2</ele>
        <time>2018-07-10T06:49:39Z</time>
      </trkpt>
      <trkpt lat="48.94899" lon="-0.5028">
        <ele>32.1</ele>
        <time>2018-07-10T06:49:39Z</time>
      </trkpt>
      <trkpt lat="48.94935" lon="-0.50293">
        <ele>34.4</ele>
        <time>2018-07-10T06:49:39Z</time>
      </trkpt>
      <trkpt lat="48.94981" lon="-0.50314">
        <ele>31.6</ele>
        <time>2018-07-10T06:49:39Z</time>
      </trkpt>
      <trkpt lat="48.95024" lon="-0.50332">
        <ele>32.1</ele>
        <time>2018-07-10T06:49:39Z</time>
      </trkpt>
      <trkpt lat="48.95051" lon="-0.50341">
        <ele>34</ele>
        <time>2018-07-10T06:49:39Z</time>
      </trkpt>
      <trkpt lat="48.95071" lon="-0.50348">
        <ele>34.2</ele>
        <time>2018-07-10T06:49:39Z</time>
      </trkpt>
      <trkpt lat="48.9509" lon="-0.5035">
        <ele>34.5</ele>
        <time>2018-07-10T06:49:39Z</time>
      </trkpt>
      <trkpt lat="48.95111" lon="-0.50351">
        <ele>34.7</ele>
        <time>2018-07-10T06:49:39Z</time>
      </trkpt>
      <trkpt lat="48.95127" lon="-0.5035">
        <ele>33.9</ele>
        <time>2018-07-10T06:49:39Z</time>
      </trkpt>
      <trkpt lat="48.95143" lon="-0.50348">
        <ele>33.3</ele>
        <time>2018-07-10T06:49:39Z</time>
      </trkpt>
      <trkpt lat="48.9516" lon="-0.50343">
        <ele>33.4</ele>
        <time>2018-07-10T06:49:39Z</time>
      </trkpt>
      <trkpt lat="48.9518" lon="-0.50337">
        <ele>33.9</ele>
        <time>2018-07-10T06:49:39Z</time>
      </trkpt>
      <trkpt lat="48.95207" lon="-0.50326">
        <ele>34.7</ele>
        <time>2018-07-10T06:49:39Z</time>
      </trkpt>
      <trkpt lat="48.95233" lon="-0.50308">
        <ele>35</ele>
        <time>2018-07-10T06:49:39Z</time>
      </trkpt>
      <trkpt lat="48.95255" lon="-0.50288">
        <ele>35.9</ele>
        <time>2018-07-10T06:49:39Z</time>
      </trkpt>
      <trkpt lat="48.95282" lon="-0.50258">
        <ele>35.3</ele>
        <time>2018-07-10T06:49:39Z</time>
      </trkpt>
      <trkpt lat="48.95282" lon="-0.50258">
        <ele>35.3</ele>
        <time>2018-07-10T06:49:39Z</time>
      </trkpt>
      <trkpt lat="48.95291" lon="-0.50247">
        <ele>35.7</ele>
        <time>2018-07-10T06:49:39Z</time>
      </trkpt>
      <trkpt lat="48.95282" lon="-0.50258">
        <ele>35.3</ele>
        <time>2018-07-10T06:49:39Z</time>
      </trkpt>
      <trkpt lat="48.95282" lon="-0.50258">
        <ele>35.3</ele>
        <time>2018-07-10T06:49:39Z</time>
      </trkpt>
      <trkpt lat="48.95291" lon="-0.50247">
        <ele>35.7</ele>
        <time>2018-07-10T06:49:39Z</time>
      </trkpt>
      <trkpt lat="48.95304" lon="-0.5023">
        <ele>35.1</ele>
        <time>2018-07-10T06:49:39Z</time>
      </trkpt>
      <trkpt lat="48.95319" lon="-0.50206">
        <ele>35.8</ele>
        <time>2018-07-10T06:49:39Z</time>
      </trkpt>
      <trkpt lat="48.95331" lon="-0.50183">
        <ele>35.1</ele>
        <time>2018-07-10T06:49:39Z</time>
      </trkpt>
      <trkpt lat="48.95337" lon="-0.50171">
        <ele>35.3</ele>
        <time>2018-07-10T06:49:39Z</time>
      </trkpt>
      <trkpt lat="48.95348" lon="-0.50148">
        <ele>35.5</ele>
        <time>2018-07-10T06:49:39Z</time>
      </trkpt>
      <trkpt lat="48.95355" lon="-0.50125">
        <ele>35</ele>
        <time>2018-07-10T06:49:39Z</time>
      </trkpt>
      <trkpt lat="48.95361" lon="-0.50101">
        <ele>34</ele>
        <time>2018-07-10T06:49:39Z</time>
      </trkpt>
      <trkpt lat="48.95368" lon="-0.50066">
        <ele>32.7</ele>
        <time>2018-07-10T06:49:39Z</time>
      </trkpt>
      <trkpt lat="48.95376" lon="-0.50027">
        <ele>30.9</ele>
        <time>2018-07-10T06:49:39Z</time>
      </trkpt>
      <trkpt lat="48.95382" lon="-0.49985">
        <ele>32.4</ele>
        <time>2018-07-10T06:49:39Z</time>
      </trkpt>
      <trkpt lat="48.95391" lon="-0.49925">
        <ele>29.1</ele>
        <time>2018-07-10T06:49:39Z</time>
      </trkpt>
      <trkpt lat="48.95402" lon="-0.49854">
        <ele>28.3</ele>
        <time>2018-07-10T06:49:39Z</time>
      </trkpt>
      <trkpt lat="48.95419" lon="-0.4974">
        <ele>32.3</ele>
        <time>2018-07-10T06:49:39Z</time>
      </trkpt>
      <trkpt lat="48.95446" lon="-0.49566">
        <ele>32.4</ele>
        <time>2018-07-10T06:49:39Z</time>
      </trkpt>
      <trkpt lat="48.95462" lon="-0.49455">
        <ele>31.8</ele>
        <time>2018-07-10T06:49:39Z</time>
      </trkpt>
      <trkpt lat="48.95478" lon="-0.49356">
        <ele>31.8</ele>
        <time>2018-07-10T06:49:39Z</time>
      </trkpt>
      <trkpt lat="48.95492" lon="-0.49278">
        <ele>31.4</ele>
        <time>2018-07-10T06:49:39Z</time>
      </trkpt>
      <trkpt lat="48.95505" lon="-0.49221">
        <ele>32</ele>
        <time>2018-07-10T06:49:39Z</time>
      </trkpt>
      <trkpt lat="48.95515" lon="-0.49178">
        <ele>31.3</ele>
        <time>2018-07-10T06:49:39Z</time>
      </trkpt>
      <trkpt lat="48.95534" lon="-0.49115">
        <ele>31.3</ele>
        <time>2018-07-10T06:49:39Z</time>
      </trkpt>
      <trkpt lat="48.95551" lon="-0.49069">
        <ele>31.7</ele>
        <time>2018-07-10T06:49:39Z</time>
      </trkpt>
      <trkpt lat="48.95572" lon="-0.4902">
        <ele>31.6</ele>
        <time>2018-07-10T06:49:39Z</time>
      </trkpt>
      <trkpt lat="48.95597" lon="-0.4897">
        <ele>31.5</ele>
        <time>2018-07-10T06:49:39Z</time>
      </trkpt>
      <trkpt lat="48.95626" lon="-0.48917">
        <ele>31.5</ele>
        <time>2018-07-10T06:49:39Z</time>
      </trkpt>
      <trkpt lat="48.95654" lon="-0.48866">
        <ele>32</ele>
        <time>2018-07-10T06:49:39Z</time>
      </trkpt>
      <trkpt lat="48.95698" lon="-0.48791">
        <ele>31.5</ele>
        <time>2018-07-10T06:49:39Z</time>
      </trkpt>
      <trkpt lat="48.95792" lon="-0.4863">
        <ele>31</ele>
        <time>2018-07-10T06:49:39Z</time>
      </trkpt>
      <trkpt lat="48.95878" lon="-0.48484">
        <ele>30.1</ele>
        <time>2018-07-10T06:49:39Z</time>
      </trkpt>
      <trkpt lat="48.95914" lon="-0.48419">
        <ele>31.7</ele>
        <time>2018-07-10T06:49:39Z</time>
      </trkpt>
      <trkpt lat="48.95957" lon="-0.48347">
        <ele>32.1</ele>
        <time>2018-07-10T06:49:39Z</time>
      </trkpt>
      <trkpt lat="48.95972" lon="-0.48321">
        <ele>32.1</ele>
        <time>2018-07-10T06:49:39Z</time>
      </trkpt>
      <trkpt lat="48.95992" lon="-0.48289">
        <ele>33.4</ele>
        <time>2018-07-10T06:49:39Z</time>
      </trkpt>
      <trkpt lat="48.96021" lon="-0.48242">
        <ele>32.8</ele>
        <time>2018-07-10T06:49:39Z</time>
      </trkpt>
      <trkpt lat="48.96037" lon="-0.48219">
        <ele>33.4</ele>
        <time>2018-07-10T06:49:39Z</time>
      </trkpt>
      <trkpt lat="48.96058" lon="-0.48194">
        <ele>33.2</ele>
        <time>2018-07-10T06:49:39Z</time>
      </trkpt>
      <trkpt lat="48.96111" lon="-0.48138">
        <ele>31.9</ele>
        <time>2018-07-10T06:49:39Z</time>
      </trkpt>
      <trkpt lat="48.96147" lon="-0.48113">
        <ele>32.4</ele>
        <time>2018-07-10T06:49:39Z</time>
      </trkpt>
      <trkpt lat="48.96152" lon="-0.48109">
        <ele>32.3</ele>
        <time>2018-07-10T06:49:39Z</time>
      </trkpt>
      <trkpt lat="48.96184" lon="-0.48091">
        <ele>31.7</ele>
        <time>2018-07-10T06:49:39Z</time>
      </trkpt>
      <trkpt lat="48.96211" lon="-0.48078">
        <ele>32</ele>
        <time>2018-07-10T06:49:39Z</time>
      </trkpt>
      <trkpt lat="48.96244" lon="-0.48066">
        <ele>31.9</ele>
        <time>2018-07-10T06:49:39Z</time>
      </trkpt>
      <trkpt lat="48.96273" lon="-0.48058">
        <ele>32.8</ele>
        <time>2018-07-10T06:49:39Z</time>
      </trkpt>
      <trkpt lat="48.96307" lon="-0.48054">
        <ele>32.8</ele>
        <time>2018-07-10T06:49:39Z</time>
      </trkpt>
      <trkpt lat="48.96335" lon="-0.48054">
        <ele>32.9</ele>
        <time>2018-07-10T06:49:39Z</time>
      </trkpt>
      <trkpt lat="48.96364" lon="-0.48056">
        <ele>33.1</ele>
        <time>2018-07-10T06:49:39Z</time>
      </trkpt>
      <trkpt lat="48.96468" lon="-0.48078">
        <ele>33.3</ele>
        <time>2018-07-10T06:49:39Z</time>
      </trkpt>
      <trkpt lat="48.96761" lon="-0.48148">
        <ele>33.6</ele>
        <time>2018-07-10T06:49:39Z</time>
      </trkpt>
      <trkpt lat="48.96822" lon="-0.48164">
        <ele>33.5</ele>
        <time>2018-07-10T06:49:39Z</time>
      </trkpt>
      <trkpt lat="48.9689" lon="-0.48181">
        <ele>34</ele>
        <time>2018-07-10T06:49:39Z</time>
      </trkpt>
      <trkpt lat="48.97141" lon="-0.48242">
        <ele>29.8</ele>
        <time>2018-07-10T06:49:39Z</time>
      </trkpt>
      <trkpt lat="48.97164" lon="-0.48248">
        <ele>30.7</ele>
        <time>2018-07-10T06:49:39Z</time>
      </trkpt>
      <trkpt lat="48.9719" lon="-0.48254">
        <ele>30.1</ele>
        <time>2018-07-10T06:49:39Z</time>
      </trkpt>
      <trkpt lat="48.97195" lon="-0.48255">
        <ele>30</ele>
        <time>2018-07-10T06:49:39Z</time>
      </trkpt>
      <trkpt lat="48.97243" lon="-0.48263">
        <ele>29</ele>
        <time>2018-07-10T06:49:39Z</time>
      </trkpt>
      <trkpt lat="48.97264" lon="-0.48264">
        <ele>28.7</ele>
        <time>2018-07-10T06:49:39Z</time>
      </trkpt>
      <trkpt lat="48.97309" lon="-0.4826">
        <ele>28.1</ele>
        <time>2018-07-10T06:49:39Z</time>
      </trkpt>
      <trkpt lat="48.97335" lon="-0.48253">
        <ele>29.6</ele>
        <time>2018-07-10T06:49:39Z</time>
      </trkpt>
      <trkpt lat="48.97361" lon="-0.48243">
        <ele>28.2</ele>
        <time>2018-07-10T06:49:39Z</time>
      </trkpt>
      <trkpt lat="48.97388" lon="-0.48229">
        <ele>28.5</ele>
        <time>2018-07-10T06:49:39Z</time>
      </trkpt>
      <trkpt lat="48.97415" lon="-0.48213">
        <ele>28.3</ele>
        <time>2018-07-10T06:49:39Z</time>
      </trkpt>
      <trkpt lat="48.97513" lon="-0.48141">
        <ele>26.7</ele>
        <time>2018-07-10T06:49:39Z</time>
      </trkpt>
      <trkpt lat="48.97545" lon="-0.48119">
        <ele>28.1</ele>
        <time>2018-07-10T06:49:39Z</time>
      </trkpt>
      <trkpt lat="48.97573" lon="-0.48103">
        <ele>28.4</ele>
        <time>2018-07-10T06:49:39Z</time>
      </trkpt>
      <trkpt lat="48.97577" lon="-0.48101">
        <ele>28.2</ele>
        <time>2018-07-10T06:49:39Z</time>
      </trkpt>
      <trkpt lat="48.97596" lon="-0.48092">
        <ele>28.2</ele>
        <time>2018-07-10T06:49:39Z</time>
      </trkpt>
      <trkpt lat="48.97627" lon="-0.48083">
        <ele>29.6</ele>
        <time>2018-07-10T06:49:39Z</time>
      </trkpt>
      <trkpt lat="48.97653" lon="-0.48078">
        <ele>29.9</ele>
        <time>2018-07-10T06:49:39Z</time>
      </trkpt>
      <trkpt lat="48.9768" lon="-0.48077">
        <ele>30</ele>
        <time>2018-07-10T06:49:39Z</time>
      </trkpt>
      <trkpt lat="48.97711" lon="-0.4808">
        <ele>30.1</ele>
        <time>2018-07-10T06:49:39Z</time>
      </trkpt>
      <trkpt lat="48.97746" lon="-0.48086">
        <ele>29.9</ele>
        <time>2018-07-10T06:49:39Z</time>
      </trkpt>
      <trkpt lat="48.97771" lon="-0.48091">
        <ele>29.9</ele>
        <time>2018-07-10T06:49:39Z</time>
      </trkpt>
      <trkpt lat="48.97826" lon="-0.48102">
        <ele>29.3</ele>
        <time>2018-07-10T06:49:39Z</time>
      </trkpt>
      <trkpt lat="48.97889" lon="-0.48114">
        <ele>30</ele>
        <time>2018-07-10T06:49:39Z</time>
      </trkpt>
      <trkpt lat="48.97959" lon="-0.48133">
        <ele>29.2</ele>
        <time>2018-07-10T06:49:39Z</time>
      </trkpt>
      <trkpt lat="48.98028" lon="-0.48148">
        <ele>29</ele>
        <time>2018-07-10T06:49:39Z</time>
      </trkpt>
      <trkpt lat="48.98434" lon="-0.48236">
        <ele>26</ele>
        <time>2018-07-10T06:49:39Z</time>
      </trkpt>
      <trkpt lat="48.98434" lon="-0.48236">
        <ele>26</ele>
        <time>2018-07-10T06:49:39Z</time>
      </trkpt>
      <trkpt lat="48.98434" lon="-0.48236">
        <ele>26</ele>
        <time>2018-07-10T06:49:39Z</time>
      </trkpt>
      <trkpt lat="48.9851" lon="-0.48247">
        <ele>26.8</ele>
        <time>2018-07-10T06:49:39Z</time>
      </trkpt>
      <trkpt lat="48.98651" lon="-0.48235">
        <ele>25.8</ele>
        <time>2018-07-10T06:49:39Z</time>
      </trkpt>
      <trkpt lat="48.9879" lon="-0.4819">
        <ele>28.8</ele>
        <time>2018-07-10T06:49:39Z</time>
      </trkpt>
      <trkpt lat="48.98862" lon="-0.48166">
        <ele>27</ele>
        <time>2018-07-10T06:49:39Z</time>
      </trkpt>
      <trkpt lat="48.98887" lon="-0.48162">
        <ele>26.8</ele>
        <time>2018-07-10T06:49:39Z</time>
      </trkpt>
      <trkpt lat="48.98926" lon="-0.48163">
        <ele>27</ele>
        <time>2018-07-10T06:49:39Z</time>
      </trkpt>
    </trkseg>
  </trk>
  <trk>
    <name><![CDATA[Thury_conde/Thury_conde]]></name>
    <trkseg>
      <trkpt lat="48.90554" lon="-0.46779">
        <ele>65</ele>
        <time>2018-07-10T10:49:53Z</time>
      </trkpt>
      <trkpt lat="48.90548" lon="-0.46787">
        <ele>65</ele>
        <time>2018-07-10T10:49:53Z</time>
      </trkpt>
      <trkpt lat="48.90535" lon="-0.46791">
        <ele>65</ele>
        <time>2018-07-10T10:49:53Z</time>
      </trkpt>
      <trkpt lat="48.90518" lon="-0.46785">
        <ele>64.9</ele>
        <time>2018-07-10T10:49:53Z</time>
      </trkpt>
      <trkpt lat="48.9047" lon="-0.4674">
        <ele>64.9</ele>
        <time>2018-07-10T10:49:53Z</time>
      </trkpt>
      <trkpt lat="48.90341" lon="-0.46642">
        <ele>64</ele>
        <time>2018-07-10T10:49:53Z</time>
      </trkpt>
      <trkpt lat="48.90093" lon="-0.46505">
        <ele>68.8</ele>
        <time>2018-07-10T10:49:53Z</time>
      </trkpt>
      <trkpt lat="48.89857" lon="-0.46463">
        <ele>74.1</ele>
        <time>2018-07-10T10:49:53Z</time>
      </trkpt>
      <trkpt lat="48.89819" lon="-0.46429">
        <ele>75.5</ele>
        <time>2018-07-10T10:49:53Z</time>
      </trkpt>
      <trkpt lat="48.89798" lon="-0.46388">
        <ele>77</ele>
        <time>2018-07-10T10:49:53Z</time>
      </trkpt>
      <trkpt lat="48.89897" lon="-0.46308">
        <ele>77.9</ele>
        <time>2018-07-10T10:49:53Z</time>
      </trkpt>
      <trkpt lat="48.89987" lon="-0.46147">
        <ele>76.5</ele>
        <time>2018-07-10T10:49:53Z</time>
      </trkpt>
      <trkpt lat="48.90056" lon="-0.46057">
        <ele>73</ele>
        <time>2018-07-10T10:49:53Z</time>
      </trkpt>
      <trkpt lat="48.90112" lon="-0.45982">
        <ele>67.7</ele>
        <time>2018-07-10T10:49:53Z</time>
      </trkpt>
      <trkpt lat="48.90154" lon="-0.45924">
        <ele>63</ele>
        <time>2018-07-10T10:49:53Z</time>
      </trkpt>
      <trkpt lat="48.9023" lon="-0.45879">
        <ele>57.8</ele>
        <time>2018-07-10T10:49:53Z</time>
      </trkpt>
      <trkpt lat="48.90276" lon="-0.45793">
        <ele>44.5</ele>
        <time>2018-07-10T10:49:53Z</time>
      </trkpt>
      <trkpt lat="48.90267" lon="-0.45685">
        <ele>36</ele>
        <time>2018-07-10T10:49:53Z</time>
      </trkpt>
      <trkpt lat="48.90232" lon="-0.45578">
        <ele>45.6</ele>
        <time>2018-07-10T10:49:53Z</time>
      </trkpt>
      <trkpt lat="48.90054" lon="-0.45564">
        <ele>56.5</ele>
        <time>2018-07-10T10:49:53Z</time>
      </trkpt>
      <trkpt lat="48.89861" lon="-0.45592">
        <ele>57.4</ele>
        <time>2018-07-10T10:49:53Z</time>
      </trkpt>
      <trkpt lat="48.89762" lon="-0.45551">
        <ele>59.2</ele>
        <time>2018-07-10T10:49:53Z</time>
      </trkpt>
      <trkpt lat="48.89727" lon="-0.45469">
        <ele>61.1</ele>
        <time>2018-07-10T10:49:53Z</time>
      </trkpt>
      <trkpt lat="48.89748" lon="-0.45312">
        <ele>66.8</ele>
        <time>2018-07-10T10:49:53Z</time>
      </trkpt>
      <trkpt lat="48.89773" lon="-0.45118">
        <ele>71.6</ele>
        <time>2018-07-10T10:49:53Z</time>
      </trkpt>
      <trkpt lat="48.89833" lon="-0.4497">
        <ele>82.1</ele>
        <time>2018-07-10T10:49:53Z</time>
      </trkpt>
      <trkpt lat="48.89917" lon="-0.4473">
        <ele>87</ele>
        <time>2018-07-10T10:49:53Z</time>
      </trkpt>
      <trkpt lat="48.89975" lon="-0.4467">
        <ele>90.4</ele>
        <time>2018-07-10T10:49:53Z</time>
      </trkpt>
      <trkpt lat="48.90064" lon="-0.44565">
        <ele>98.2</ele>
        <time>2018-07-10T10:49:53Z</time>
      </trkpt>
      <trkpt lat="48.90114" lon="-0.44391">
        <ele>96.2</ele>
        <time>2018-07-10T10:49:53Z</time>
      </trkpt>
      <trkpt lat="48.9017" lon="-0.44257">
        <ele>92</ele>
        <time>2018-07-10T10:49:53Z</time>
      </trkpt>
      <trkpt lat="48.90137" lon="-0.44241">
        <ele>99.1</ele>
        <time>2018-07-10T10:49:53Z</time>
      </trkpt>
      <trkpt lat="48.90031" lon="-0.44277">
        <ele>102.7</ele>
        <time>2018-07-10T10:49:53Z</time>
      </trkpt>
      <trkpt lat="48.90027" lon="-0.44089">
        <ele>110.6</ele>
        <time>2018-07-10T10:49:53Z</time>
      </trkpt>
      <trkpt lat="48.90002" lon="-0.43971">
        <ele>115.2</ele>
        <time>2018-07-10T10:49:53Z</time>
      </trkpt>
      <trkpt lat="48.90048" lon="-0.43693">
        <ele>116.9</ele>
        <time>2018-07-10T10:49:53Z</time>
      </trkpt>
      <trkpt lat="48.90046" lon="-0.43592">
        <ele>116.9</ele>
        <time>2018-07-10T10:49:53Z</time>
      </trkpt>
      <trkpt lat="48.90087" lon="-0.43327">
        <ele>119.5</ele>
        <time>2018-07-10T10:49:53Z</time>
      </trkpt>
      <trkpt lat="48.90037" lon="-0.43244">
        <ele>121</ele>
        <time>2018-07-10T10:49:53Z</time>
      </trkpt>
      <trkpt lat="48.89996" lon="-0.43357">
        <ele>122.2</ele>
        <time>2018-07-10T10:49:53Z</time>
      </trkpt>
      <trkpt lat="48.8983" lon="-0.43151">
        <ele>99.2</ele>
        <time>2018-07-10T10:49:53Z</time>
      </trkpt>
      <trkpt lat="48.89731" lon="-0.43108">
        <ele>90</ele>
        <time>2018-07-10T10:49:53Z</time>
      </trkpt>
      <trkpt lat="48.89767" lon="-0.42685">
        <ele>95.1</ele>
        <time>2018-07-10T10:49:53Z</time>
      </trkpt>
      <trkpt lat="48.89569" lon="-0.42614">
        <ele>92.9</ele>
        <time>2018-07-10T10:49:53Z</time>
      </trkpt>
      <trkpt lat="48.89574" lon="-0.42462">
        <ele>98.8</ele>
        <time>2018-07-10T10:49:53Z</time>
      </trkpt>
      <trkpt lat="48.89505" lon="-0.42371">
        <ele>104.9</ele>
        <time>2018-07-10T10:49:53Z</time>
      </trkpt>
      <trkpt lat="48.89511" lon="-0.42162">
        <ele>113.5</ele>
        <time>2018-07-10T10:49:53Z</time>
      </trkpt>
      <trkpt lat="48.89379" lon="-0.42103">
        <ele>124.9</ele>
        <time>2018-07-10T10:49:53Z</time>
      </trkpt>
      <trkpt lat="48.89312" lon="-0.41622">
        <ele>116.8</ele>
        <time>2018-07-10T10:49:53Z</time>
      </trkpt>
      <trkpt lat="48.89269" lon="-0.41287">
        <ele>107.4</ele>
        <time>2018-07-10T10:49:53Z</time>
      </trkpt>
      <trkpt lat="48.89276" lon="-0.41034">
        <ele>105.4</ele>
        <time>2018-07-10T10:49:53Z</time>
      </trkpt>
      <trkpt lat="48.89222" lon="-0.40951">
        <ele>88.6</ele>
        <time>2018-07-10T10:49:53Z</time>
      </trkpt>
      <trkpt lat="48.89248" lon="-0.40534">
        <ele>93.8</ele>
        <time>2018-07-10T10:49:53Z</time>
      </trkpt>
      <trkpt lat="48.89197" lon="-0.40798">
        <ele>70.7</ele>
        <time>2018-07-10T10:49:53Z</time>
      </trkpt>
      <trkpt lat="48.89178" lon="-0.41136">
        <ele>70.5</ele>
        <time>2018-07-10T10:49:53Z</time>
      </trkpt>
      <trkpt lat="48.89048" lon="-0.41366">
        <ele>66</ele>
        <time>2018-07-10T10:49:53Z</time>
      </trkpt>
      <trkpt lat="48.88932" lon="-0.41409">
        <ele>50.9</ele>
        <time>2018-07-10T10:49:53Z</time>
      </trkpt>
      <trkpt lat="48.88795" lon="-0.41378">
        <ele>56.9</ele>
        <time>2018-07-10T10:49:53Z</time>
      </trkpt>
      <trkpt lat="48.88534" lon="-0.41499">
        <ele>51.7</ele>
        <time>2018-07-10T10:49:53Z</time>
      </trkpt>
      <trkpt lat="48.88438" lon="-0.41709">
        <ele>57.2</ele>
        <time>2018-07-10T10:49:53Z</time>
      </trkpt>
      <trkpt lat="48.88296" lon="-0.41858">
        <ele>65.8</ele>
        <time>2018-07-10T10:49:53Z</time>
      </trkpt>
      <trkpt lat="48.88205" lon="-0.41852">
        <ele>54.9</ele>
        <time>2018-07-10T10:49:53Z</time>
      </trkpt>
      <trkpt lat="48.88163" lon="-0.41669">
        <ele>67.3</ele>
        <time>2018-07-10T10:49:53Z</time>
      </trkpt>
      <trkpt lat="48.88057" lon="-0.41554">
        <ele>48.6</ele>
        <time>2018-07-10T10:49:53Z</time>
      </trkpt>
      <trkpt lat="48.87933" lon="-0.41365">
        <ele>50.5</ele>
        <time>2018-07-10T10:49:53Z</time>
      </trkpt>
      <trkpt lat="48.87743" lon="-0.41179">
        <ele>53.8</ele>
        <time>2018-07-10T10:49:53Z</time>
      </trkpt>
      <trkpt lat="48.87564" lon="-0.4111">
        <ele>49.4</ele>
        <time>2018-07-10T10:49:53Z</time>
      </trkpt>
      <trkpt lat="48.87385" lon="-0.40981">
        <ele>51.6</ele>
        <time>2018-07-10T10:49:53Z</time>
      </trkpt>
      <trkpt lat="48.87257" lon="-0.4125">
        <ele>52.7</ele>
        <time>2018-07-10T10:49:53Z</time>
      </trkpt>
      <trkpt lat="48.87197" lon="-0.41344">
        <ele>58.9</ele>
        <time>2018-07-10T10:49:53Z</time>
      </trkpt>
      <trkpt lat="48.8715" lon="-0.41406">
        <ele>61.8</ele>
        <time>2018-07-10T10:49:53Z</time>
      </trkpt>
      <trkpt lat="48.87101" lon="-0.4146">
        <ele>62</ele>
        <time>2018-07-10T10:49:53Z</time>
      </trkpt>
      <trkpt lat="48.8707" lon="-0.41516">
        <ele>62.7</ele>
        <time>2018-07-10T10:49:53Z</time>
      </trkpt>
      <trkpt lat="48.87003" lon="-0.41641">
        <ele>61</ele>
        <time>2018-07-10T10:49:53Z</time>
      </trkpt>
      <trkpt lat="48.86965" lon="-0.41707">
        <ele>57.2</ele>
        <time>2018-07-10T10:49:53Z</time>
      </trkpt>
      <trkpt lat="48.86898" lon="-0.41898">
        <ele>52.4</ele>
        <time>2018-07-10T10:49:53Z</time>
      </trkpt>
      <trkpt lat="48.86876" lon="-0.4199">
        <ele>51.4</ele>
        <time>2018-07-10T10:49:53Z</time>
      </trkpt>
      <trkpt lat="48.86842" lon="-0.42176">
        <ele>51.1</ele>
        <time>2018-07-10T10:49:53Z</time>
      </trkpt>
      <trkpt lat="48.86835" lon="-0.42266">
        <ele>51.5</ele>
        <time>2018-07-10T10:49:53Z</time>
      </trkpt>
      <trkpt lat="48.86829" lon="-0.42384">
        <ele>52.5</ele>
        <time>2018-07-10T10:49:53Z</time>
      </trkpt>
      <trkpt lat="48.86808" lon="-0.42452">
        <ele>53</ele>
        <time>2018-07-10T10:49:53Z</time>
      </trkpt>
      <trkpt lat="48.86754" lon="-0.426">
        <ele>55</ele>
        <time>2018-07-10T10:49:53Z</time>
      </trkpt>
      <trkpt lat="48.86698" lon="-0.4273">
        <ele>57.8</ele>
        <time>2018-07-10T10:49:53Z</time>
      </trkpt>
      <trkpt lat="48.86659" lon="-0.42789">
        <ele>56.3</ele>
        <time>2018-07-10T10:49:53Z</time>
      </trkpt>
      <trkpt lat="48.86588" lon="-0.42955">
        <ele>54.4</ele>
        <time>2018-07-10T10:49:53Z</time>
      </trkpt>
      <trkpt lat="48.86537" lon="-0.43116">
        <ele>54.4</ele>
        <time>2018-07-10T10:49:53Z</time>
      </trkpt>
      <trkpt lat="48.86559" lon="-0.43364">
        <ele>60</ele>
        <time>2018-07-10T10:49:53Z</time>
      </trkpt>
      <trkpt lat="48.86594" lon="-0.43593">
        <ele>59.5</ele>
        <time>2018-07-10T10:49:53Z</time>
      </trkpt>
      <trkpt lat="48.86624" lon="-0.43715">
        <ele>57.7</ele>
        <time>2018-07-10T10:49:53Z</time>
      </trkpt>
      <trkpt lat="48.86656" lon="-0.43781">
        <ele>56.7</ele>
        <time>2018-07-10T10:49:53Z</time>
      </trkpt>
      <trkpt lat="48.86655" lon="-0.43945">
        <ele>55.6</ele>
        <time>2018-07-10T10:49:53Z</time>
      </trkpt>
      <trkpt lat="48.86816" lon="-0.44158">
        <ele>58.7</ele>
        <time>2018-07-10T10:49:53Z</time>
      </trkpt>
      <trkpt lat="48.8689" lon="-0.44327">
        <ele>59.8</ele>
        <time>2018-07-10T10:49:53Z</time>
      </trkpt>
      <trkpt lat="48.86935" lon="-0.44639">
        <ele>59</ele>
        <time>2018-07-10T10:49:53Z</time>
      </trkpt>
      <trkpt lat="48.86914" lon="-0.44802">
        <ele>59.5</ele>
        <time>2018-07-10T10:49:53Z</time>
      </trkpt>
      <trkpt lat="48.86894" lon="-0.45041">
        <ele>69.1</ele>
        <time>2018-07-10T10:49:53Z</time>
      </trkpt>
      <trkpt lat="48.86884" lon="-0.454">
        <ele>63.7</ele>
        <time>2018-07-10T10:49:53Z</time>
      </trkpt>
      <trkpt lat="48.86905" lon="-0.45553">
        <ele>64.1</ele>
        <time>2018-07-10T10:49:53Z</time>
      </trkpt>
      <trkpt lat="48.86973" lon="-0.45798">
        <ele>63.7</ele>
        <time>2018-07-10T10:49:53Z</time>
      </trkpt>
      <trkpt lat="48.86984" lon="-0.46127">
        <ele>69.2</ele>
        <time>2018-07-10T10:49:53Z</time>
      </trkpt>
      <trkpt lat="48.86999" lon="-0.46312">
        <ele>67.4</ele>
        <time>2018-07-10T10:49:53Z</time>
      </trkpt>
      <trkpt lat="48.86996" lon="-0.46444">
        <ele>66.7</ele>
        <time>2018-07-10T10:49:53Z</time>
      </trkpt>
      <trkpt lat="48.86864" lon="-0.46682">
        <ele>67.3</ele>
        <time>2018-07-10T10:49:53Z</time>
      </trkpt>
      <trkpt lat="48.86779" lon="-0.4679">
        <ele>68.6</ele>
        <time>2018-07-10T10:49:53Z</time>
      </trkpt>
      <trkpt lat="48.86668" lon="-0.46884">
        <ele>66.8</ele>
        <time>2018-07-10T10:49:53Z</time>
      </trkpt>
      <trkpt lat="48.86601" lon="-0.46899">
        <ele>68</ele>
        <time>2018-07-10T10:49:53Z</time>
      </trkpt>
      <trkpt lat="48.86247" lon="-0.47008">
        <ele>78.9</ele>
        <time>2018-07-10T10:49:53Z</time>
      </trkpt>
      <trkpt lat="48.86112" lon="-0.47081">
        <ele>78.9</ele>
        <time>2018-07-10T10:49:53Z</time>
      </trkpt>
      <trkpt lat="48.85921" lon="-0.47352">
        <ele>77.7</ele>
        <time>2018-07-10T10:49:53Z</time>
      </trkpt>
      <trkpt lat="48.85867" lon="-0.47494">
        <ele>77.4</ele>
        <time>2018-07-10T10:49:53Z</time>
      </trkpt>
      <trkpt lat="48.85832" lon="-0.47688">
        <ele>83.2</ele>
        <time>2018-07-10T10:49:53Z</time>
      </trkpt>
      <trkpt lat="48.85857" lon="-0.47955">
        <ele>75.2</ele>
        <time>2018-07-10T10:49:53Z</time>
      </trkpt>
      <trkpt lat="48.85902" lon="-0.48153">
        <ele>68.8</ele>
        <time>2018-07-10T10:49:53Z</time>
      </trkpt>
      <trkpt lat="48.85893" lon="-0.48317">
        <ele>66.6</ele>
        <time>2018-07-10T10:49:53Z</time>
      </trkpt>
      <trkpt lat="48.85784" lon="-0.48607">
        <ele>68.9</ele>
        <time>2018-07-10T10:49:53Z</time>
      </trkpt>
      <trkpt lat="48.85724" lon="-0.48798">
        <ele>71.2</ele>
        <time>2018-07-10T10:49:53Z</time>
      </trkpt>
      <trkpt lat="48.8572" lon="-0.48962">
        <ele>76.5</ele>
        <time>2018-07-10T10:49:53Z</time>
      </trkpt>
      <trkpt lat="48.85752" lon="-0.49154">
        <ele>77.8</ele>
        <time>2018-07-10T10:49:53Z</time>
      </trkpt>
      <trkpt lat="48.85804" lon="-0.49347">
        <ele>78.4</ele>
        <time>2018-07-10T10:49:53Z</time>
      </trkpt>
      <trkpt lat="48.85796" lon="-0.49492">
        <ele>77.5</ele>
        <time>2018-07-10T10:49:53Z</time>
      </trkpt>
      <trkpt lat="48.85768" lon="-0.49597">
        <ele>73.7</ele>
        <time>2018-07-10T10:49:53Z</time>
      </trkpt>
      <trkpt lat="48.8568" lon="-0.49743">
        <ele>67.5</ele>
        <time>2018-07-10T10:49:53Z</time>
      </trkpt>
      <trkpt lat="48.85436" lon="-0.49979">
        <ele>70.2</ele>
        <time>2018-07-10T10:49:53Z</time>
      </trkpt>
      <trkpt lat="48.85242" lon="-0.5026">
        <ele>69.8</ele>
        <time>2018-07-10T10:49:53Z</time>
      </trkpt>
      <trkpt lat="48.85198" lon="-0.50348">
        <ele>70.3</ele>
        <time>2018-07-10T10:49:53Z</time>
      </trkpt>
      <trkpt lat="48.85107" lon="-0.50519">
        <ele>70.6</ele>
        <time>2018-07-10T10:49:53Z</time>
      </trkpt>
      <trkpt lat="48.8506" lon="-0.50633">
        <ele>76.2</ele>
        <time>2018-07-10T10:49:53Z</time>
      </trkpt>
      <trkpt lat="48.85049" lon="-0.50806">
        <ele>69.9</ele>
        <time>2018-07-10T10:49:53Z</time>
      </trkpt>
      <trkpt lat="48.85069" lon="-0.5106">
        <ele>85.5</ele>
        <time>2018-07-10T10:49:53Z</time>
      </trkpt>
      <trkpt lat="48.85124" lon="-0.51294">
        <ele>82.1</ele>
        <time>2018-07-10T10:49:53Z</time>
      </trkpt>
      <trkpt lat="48.85149" lon="-0.5145">
        <ele>84.3</ele>
        <time>2018-07-10T10:49:53Z</time>
      </trkpt>
      <trkpt lat="48.85144" lon="-0.51548">
        <ele>84.7</ele>
        <time>2018-07-10T10:49:53Z</time>
      </trkpt>
      <trkpt lat="48.85138" lon="-0.51604">
        <ele>83.4</ele>
        <time>2018-07-10T10:49:53Z</time>
      </trkpt>
      <trkpt lat="48.85025" lon="-0.51821">
        <ele>73.9</ele>
        <time>2018-07-10T10:49:53Z</time>
      </trkpt>
      <trkpt lat="48.84978" lon="-0.51826">
        <ele>73.4</ele>
        <time>2018-07-10T10:49:53Z</time>
      </trkpt>
      <trkpt lat="48.84934" lon="-0.51875">
        <ele>74.8</ele>
        <time>2018-07-10T10:49:53Z</time>
      </trkpt>
      <trkpt lat="48.84908" lon="-0.5192">
        <ele>76.7</ele>
        <time>2018-07-10T10:49:53Z</time>
      </trkpt>
      <trkpt lat="48.84883" lon="-0.52055">
        <ele>79.5</ele>
        <time>2018-07-10T10:49:53Z</time>
      </trkpt>
      <trkpt lat="48.84933" lon="-0.52329">
        <ele>79.7</ele>
        <time>2018-07-10T10:49:53Z</time>
      </trkpt>
      <trkpt lat="48.84953" lon="-0.52498">
        <ele>80.4</ele>
        <time>2018-07-10T10:49:53Z</time>
      </trkpt>
      <trkpt lat="48.84942" lon="-0.52586">
        <ele>91.5</ele>
        <time>2018-07-10T10:49:53Z</time>
      </trkpt>
      <trkpt lat="48.84806" lon="-0.52763">
        <ele>99.8</ele>
        <time>2018-07-10T10:49:53Z</time>
      </trkpt>
      <trkpt lat="48.84714" lon="-0.52855">
        <ele>111.5</ele>
        <time>2018-07-10T10:49:53Z</time>
      </trkpt>
      <trkpt lat="48.84631" lon="-0.529">
        <ele>114.2</ele>
        <time>2018-07-10T10:49:53Z</time>
      </trkpt>
      <trkpt lat="48.8459" lon="-0.5296">
        <ele>117.2</ele>
        <time>2018-07-10T10:49:53Z</time>
      </trkpt>
      <trkpt lat="48.84565" lon="-0.53012">
        <ele>120</ele>
        <time>2018-07-10T10:49:53Z</time>
      </trkpt>
      <trkpt lat="48.84521" lon="-0.53104">
        <ele>122.8</ele>
        <time>2018-07-10T10:49:53Z</time>
      </trkpt>
      <trkpt lat="48.8444" lon="-0.53146">
        <ele>126.4</ele>
        <time>2018-07-10T10:49:53Z</time>
      </trkpt>
      <trkpt lat="48.84395" lon="-0.53193">
        <ele>129.5</ele>
        <time>2018-07-10T10:49:53Z</time>
      </trkpt>
      <trkpt lat="48.84448" lon="-0.53294">
        <ele>128.7</ele>
        <time>2018-07-10T10:49:53Z</time>
      </trkpt>
      <trkpt lat="48.84541" lon="-0.53348">
        <ele>121.8</ele>
        <time>2018-07-10T10:49:53Z</time>
      </trkpt>
      <trkpt lat="48.84685" lon="-0.53396">
        <ele>110.9</ele>
        <time>2018-07-10T10:49:53Z</time>
      </trkpt>
      <trkpt lat="48.84761" lon="-0.53492">
        <ele>103.3</ele>
        <time>2018-07-10T10:49:53Z</time>
      </trkpt>
      <trkpt lat="48.8477" lon="-0.53623">
        <ele>103.3</ele>
        <time>2018-07-10T10:49:53Z</time>
      </trkpt>
      <trkpt lat="48.84732" lon="-0.54135">
        <ele>80.1</ele>
        <time>2018-07-10T10:49:53Z</time>
      </trkpt>
      <trkpt lat="48.84695" lon="-0.54265">
        <ele>84</ele>
        <time>2018-07-10T10:49:53Z</time>
      </trkpt>
      <trkpt lat="48.84689" lon="-0.54315">
        <ele>85.2</ele>
        <time>2018-07-10T10:49:53Z</time>
      </trkpt>
      <trkpt lat="48.84748" lon="-0.5465">
        <ele>82.2</ele>
        <time>2018-07-10T10:49:53Z</time>
      </trkpt>
      <trkpt lat="48.84763" lon="-0.54775">
        <ele>80.5</ele>
        <time>2018-07-10T10:49:53Z</time>
      </trkpt>
      <trkpt lat="48.84775" lon="-0.54864">
        <ele>81.2</ele>
        <time>2018-07-10T10:49:53Z</time>
      </trkpt>
      <trkpt lat="48.84791" lon="-0.54878">
        <ele>79.5</ele>
        <time>2018-07-10T10:49:53Z</time>
      </trkpt>
      <trkpt lat="48.84803" lon="-0.54891">
        <ele>77.5</ele>
        <time>2018-07-10T10:49:53Z</time>
      </trkpt>
      <trkpt lat="48.84843" lon="-0.54957">
        <ele>78.8</ele>
        <time>2018-07-10T10:49:53Z</time>
      </trkpt>
      <trkpt lat="48.84875" lon="-0.55016">
        <ele>79</ele>
        <time>2018-07-10T10:49:53Z</time>
      </trkpt>
      <trkpt lat="48.84875" lon="-0.5507">
        <ele>79.8</ele>
        <time>2018-07-10T10:49:53Z</time>
      </trkpt>
      <trkpt lat="48.84875" lon="-0.5507">
        <ele>79.8</ele>
        <time>2018-07-10T10:49:53Z</time>
      </trkpt>
      <trkpt lat="48.90554" lon="-0.46779">
        <ele>65</ele>
        <time>2018-07-10T07:03:51Z</time>
      </trkpt>
      <trkpt lat="48.90548" lon="-0.46787">
        <ele>65</ele>
        <time>2018-07-10T07:03:51Z</time>
      </trkpt>
      <trkpt lat="48.90535" lon="-0.46791">
        <ele>65</ele>
        <time>2018-07-10T07:03:51Z</time>
      </trkpt>
      <trkpt lat="48.90518" lon="-0.46785">
        <ele>64.9</ele>
        <time>2018-07-10T07:03:51Z</time>
      </trkpt>
      <trkpt lat="48.9047" lon="-0.4674">
        <ele>64.9</ele>
        <time>2018-07-10T07:03:51Z</time>
      </trkpt>
      <trkpt lat="48.90341" lon="-0.46642">
        <ele>64</ele>
        <time>2018-07-10T07:03:51Z</time>
      </trkpt>
      <trkpt lat="48.90093" lon="-0.46505">
        <ele>68.8</ele>
        <time>2018-07-10T07:03:51Z</time>
      </trkpt>
      <trkpt lat="48.89857" lon="-0.46463">
        <ele>74.1</ele>
        <time>2018-07-10T07:03:51Z</time>
      </trkpt>
      <trkpt lat="48.89819" lon="-0.46429">
        <ele>75.5</ele>
        <time>2018-07-10T07:03:51Z</time>
      </trkpt>
      <trkpt lat="48.89798" lon="-0.46388">
        <ele>77</ele>
        <time>2018-07-10T07:03:51Z</time>
      </trkpt>
      <trkpt lat="48.89897" lon="-0.46308">
        <ele>77.9</ele>
        <time>2018-07-10T07:03:51Z</time>
      </trkpt>
      <trkpt lat="48.89987" lon="-0.46147">
        <ele>76.5</ele>
        <time>2018-07-10T07:03:51Z</time>
      </trkpt>
      <trkpt lat="48.90056" lon="-0.46057">
        <ele>73</ele>
        <time>2018-07-10T07:03:51Z</time>
      </trkpt>
      <trkpt lat="48.90112" lon="-0.45982">
        <ele>67.7</ele>
        <time>2018-07-10T07:03:51Z</time>
      </trkpt>
      <trkpt lat="48.90154" lon="-0.45924">
        <ele>63</ele>
        <time>2018-07-10T07:03:51Z</time>
      </trkpt>
      <trkpt lat="48.9023" lon="-0.45879">
        <ele>57.8</ele>
        <time>2018-07-10T07:03:51Z</time>
      </trkpt>
      <trkpt lat="48.90276" lon="-0.45793">
        <ele>44.5</ele>
        <time>2018-07-10T07:03:51Z</time>
      </trkpt>
      <trkpt lat="48.90267" lon="-0.45685">
        <ele>36</ele>
        <time>2018-07-10T07:03:51Z</time>
      </trkpt>
      <trkpt lat="48.90232" lon="-0.45578">
        <ele>45.6</ele>
        <time>2018-07-10T07:03:51Z</time>
      </trkpt>
      <trkpt lat="48.90054" lon="-0.45564">
        <ele>56.5</ele>
        <time>2018-07-10T07:03:51Z</time>
      </trkpt>
      <trkpt lat="48.89861" lon="-0.45592">
        <ele>57.4</ele>
        <time>2018-07-10T07:03:51Z</time>
      </trkpt>
      <trkpt lat="48.89762" lon="-0.45551">
        <ele>59.2</ele>
        <time>2018-07-10T07:03:51Z</time>
      </trkpt>
      <trkpt lat="48.89727" lon="-0.45469">
        <ele>61.1</ele>
        <time>2018-07-10T07:03:51Z</time>
      </trkpt>
      <trkpt lat="48.89748" lon="-0.45312">
        <ele>66.8</ele>
        <time>2018-07-10T07:03:51Z</time>
      </trkpt>
      <trkpt lat="48.89773" lon="-0.45118">
        <ele>71.6</ele>
        <time>2018-07-10T07:03:51Z</time>
      </trkpt>
      <trkpt lat="48.89833" lon="-0.4497">
        <ele>82.1</ele>
        <time>2018-07-10T07:03:51Z</time>
      </trkpt>
      <trkpt lat="48.89917" lon="-0.4473">
        <ele>87</ele>
        <time>2018-07-10T07:03:51Z</time>
      </trkpt>
      <trkpt lat="48.89975" lon="-0.4467">
        <ele>90.4</ele>
        <time>2018-07-10T07:03:51Z</time>
      </trkpt>
      <trkpt lat="48.90064" lon="-0.44565">
        <ele>98.2</ele>
        <time>2018-07-10T07:03:51Z</time>
      </trkpt>
      <trkpt lat="48.90114" lon="-0.44391">
        <ele>96.2</ele>
        <time>2018-07-10T07:03:51Z</time>
      </trkpt>
      <trkpt lat="48.9017" lon="-0.44257">
        <ele>92</ele>
        <time>2018-07-10T07:03:51Z</time>
      </trkpt>
      <trkpt lat="48.90137" lon="-0.44241">
        <ele>99.1</ele>
        <time>2018-07-10T07:03:51Z</time>
      </trkpt>
      <trkpt lat="48.90031" lon="-0.44277">
        <ele>102.7</ele>
        <time>2018-07-10T07:03:51Z</time>
      </trkpt>
      <trkpt lat="48.90027" lon="-0.44089">
        <ele>110.6</ele>
        <time>2018-07-10T07:03:51Z</time>
      </trkpt>
      <trkpt lat="48.90002" lon="-0.43971">
        <ele>115.2</ele>
        <time>2018-07-10T07:03:51Z</time>
      </trkpt>
      <trkpt lat="48.90048" lon="-0.43693">
        <ele>116.9</ele>
        <time>2018-07-10T07:03:51Z</time>
      </trkpt>
      <trkpt lat="48.90046" lon="-0.43592">
        <ele>116.9</ele>
        <time>2018-07-10T07:03:51Z</time>
      </trkpt>
      <trkpt lat="48.90087" lon="-0.43327">
        <ele>119.5</ele>
        <time>2018-07-10T07:03:51Z</time>
      </trkpt>
      <trkpt lat="48.90037" lon="-0.43244">
        <ele>121</ele>
        <time>2018-07-10T07:03:51Z</time>
      </trkpt>
      <trkpt lat="48.89996" lon="-0.43357">
        <ele>122.2</ele>
        <time>2018-07-10T07:03:51Z</time>
      </trkpt>
      <trkpt lat="48.8983" lon="-0.43151">
        <ele>99.2</ele>
        <time>2018-07-10T07:03:51Z</time>
      </trkpt>
      <trkpt lat="48.89731" lon="-0.43108">
        <ele>90</ele>
        <time>2018-07-10T07:03:51Z</time>
      </trkpt>
      <trkpt lat="48.89767" lon="-0.42685">
        <ele>95.1</ele>
        <time>2018-07-10T07:03:51Z</time>
      </trkpt>
      <trkpt lat="48.89569" lon="-0.42614">
        <ele>92.9</ele>
        <time>2018-07-10T07:03:51Z</time>
      </trkpt>
      <trkpt lat="48.89574" lon="-0.42462">
        <ele>98.8</ele>
        <time>2018-07-10T07:03:51Z</time>
      </trkpt>
      <trkpt lat="48.89505" lon="-0.42371">
        <ele>104.9</ele>
        <time>2018-07-10T07:03:51Z</time>
      </trkpt>
      <trkpt lat="48.89511" lon="-0.42162">
        <ele>113.5</ele>
        <time>2018-07-10T07:03:51Z</time>
      </trkpt>
      <trkpt lat="48.89379" lon="-0.42103">
        <ele>124.9</ele>
        <time>2018-07-10T07:03:51Z</time>
      </trkpt>
      <trkpt lat="48.89312" lon="-0.41622">
        <ele>116.8</ele>
        <time>2018-07-10T07:03:51Z</time>
      </trkpt>
      <trkpt lat="48.89269" lon="-0.41287">
        <ele>107.4</ele>
        <time>2018-07-10T07:03:51Z</time>
      </trkpt>
      <trkpt lat="48.89276" lon="-0.41034">
        <ele>105.4</ele>
        <time>2018-07-10T07:03:51Z</time>
      </trkpt>
      <trkpt lat="48.89222" lon="-0.40951">
        <ele>88.6</ele>
        <time>2018-07-10T07:03:51Z</time>
      </trkpt>
      <trkpt lat="48.89248" lon="-0.40534">
        <ele>93.8</ele>
        <time>2018-07-10T07:03:51Z</time>
      </trkpt>
      <trkpt lat="48.89197" lon="-0.40798">
        <ele>70.7</ele>
        <time>2018-07-10T07:03:51Z</time>
      </trkpt>
      <trkpt lat="48.89178" lon="-0.41136">
        <ele>70.5</ele>
        <time>2018-07-10T07:03:51Z</time>
      </trkpt>
      <trkpt lat="48.89048" lon="-0.41366">
        <ele>66</ele>
        <time>2018-07-10T07:03:51Z</time>
      </trkpt>
      <trkpt lat="48.88932" lon="-0.41409">
        <ele>50.9</ele>
        <time>2018-07-10T07:03:51Z</time>
      </trkpt>
      <trkpt lat="48.88795" lon="-0.41378">
        <ele>56.9</ele>
        <time>2018-07-10T07:03:51Z</time>
      </trkpt>
      <trkpt lat="48.88534" lon="-0.41499">
        <ele>51.7</ele>
        <time>2018-07-10T07:03:51Z</time>
      </trkpt>
      <trkpt lat="48.88438" lon="-0.41709">
        <ele>57.2</ele>
        <time>2018-07-10T07:03:51Z</time>
      </trkpt>
      <trkpt lat="48.88296" lon="-0.41858">
        <ele>65.8</ele>
        <time>2018-07-10T07:03:51Z</time>
      </trkpt>
      <trkpt lat="48.88205" lon="-0.41852">
        <ele>54.9</ele>
        <time>2018-07-10T07:03:51Z</time>
      </trkpt>
      <trkpt lat="48.88163" lon="-0.41669">
        <ele>67.3</ele>
        <time>2018-07-10T07:03:51Z</time>
      </trkpt>
      <trkpt lat="48.88057" lon="-0.41554">
        <ele>48.6</ele>
        <time>2018-07-10T07:03:51Z</time>
      </trkpt>
      <trkpt lat="48.87933" lon="-0.41365">
        <ele>50.5</ele>
        <time>2018-07-10T07:03:51Z</time>
      </trkpt>
      <trkpt lat="48.87743" lon="-0.41179">
        <ele>53.8</ele>
        <time>2018-07-10T07:03:51Z</time>
      </trkpt>
      <trkpt lat="48.87564" lon="-0.4111">
        <ele>49.4</ele>
        <time>2018-07-10T07:03:51Z</time>
      </trkpt>
      <trkpt lat="48.87385" lon="-0.40981">
        <ele>51.6</ele>
        <time>2018-07-10T07:03:51Z</time>
      </trkpt>
      <trkpt lat="48.87257" lon="-0.4125">
        <ele>52.7</ele>
        <time>2018-07-10T07:03:51Z</time>
      </trkpt>
      <trkpt lat="48.87197" lon="-0.41344">
        <ele>58.9</ele>
        <time>2018-07-10T07:03:51Z</time>
      </trkpt>
      <trkpt lat="48.8715" lon="-0.41406">
        <ele>61.8</ele>
        <time>2018-07-10T07:03:51Z</time>
      </trkpt>
      <trkpt lat="48.87101" lon="-0.4146">
        <ele>62</ele>
        <time>2018-07-10T07:03:51Z</time>
      </trkpt>
      <trkpt lat="48.8707" lon="-0.41516">
        <ele>62.7</ele>
        <time>2018-07-10T07:03:51Z</time>
      </trkpt>
      <trkpt lat="48.87003" lon="-0.41641">
        <ele>61</ele>
        <time>2018-07-10T07:03:51Z</time>
      </trkpt>
      <trkpt lat="48.86965" lon="-0.41707">
        <ele>57.2</ele>
        <time>2018-07-10T07:03:51Z</time>
      </trkpt>
      <trkpt lat="48.86898" lon="-0.41898">
        <ele>52.4</ele>
        <time>2018-07-10T07:03:51Z</time>
      </trkpt>
      <trkpt lat="48.86876" lon="-0.4199">
        <ele>51.4</ele>
        <time>2018-07-10T07:03:51Z</time>
      </trkpt>
      <trkpt lat="48.86842" lon="-0.42176">
        <ele>51.1</ele>
        <time>2018-07-10T07:03:51Z</time>
      </trkpt>
      <trkpt lat="48.86835" lon="-0.42266">
        <ele>51.5</ele>
        <time>2018-07-10T07:03:51Z</time>
      </trkpt>
      <trkpt lat="48.86829" lon="-0.42384">
        <ele>52.5</ele>
        <time>2018-07-10T07:03:51Z</time>
      </trkpt>
      <trkpt lat="48.86808" lon="-0.42452">
        <ele>53</ele>
        <time>2018-07-10T07:03:51Z</time>
      </trkpt>
      <trkpt lat="48.86754" lon="-0.426">
        <ele>55</ele>
        <time>2018-07-10T07:03:51Z</time>
      </trkpt>
      <trkpt lat="48.86698" lon="-0.4273">
        <ele>57.8</ele>
        <time>2018-07-10T07:03:51Z</time>
      </trkpt>
      <trkpt lat="48.86659" lon="-0.42789">
        <ele>56.3</ele>
        <time>2018-07-10T07:03:51Z</time>
      </trkpt>
      <trkpt lat="48.86588" lon="-0.42955">
        <ele>54.4</ele>
        <time>2018-07-10T07:03:51Z</time>
      </trkpt>
      <trkpt lat="48.86537" lon="-0.43116">
        <ele>54.4</ele>
        <time>2018-07-10T07:03:51Z</time>
      </trkpt>
      <trkpt lat="48.86559" lon="-0.43364">
        <ele>60</ele>
        <time>2018-07-10T07:03:51Z</time>
      </trkpt>
      <trkpt lat="48.86594" lon="-0.43593">
        <ele>59.5</ele>
        <time>2018-07-10T07:03:51Z</time>
      </trkpt>
      <trkpt lat="48.86624" lon="-0.43715">
        <ele>57.7</ele>
        <time>2018-07-10T07:03:51Z</time>
      </trkpt>
      <trkpt lat="48.86656" lon="-0.43781">
        <ele>56.7</ele>
        <time>2018-07-10T07:03:51Z</time>
      </trkpt>
      <trkpt lat="48.86655" lon="-0.43945">
        <ele>55.6</ele>
        <time>2018-07-10T07:03:51Z</time>
      </trkpt>
      <trkpt lat="48.86816" lon="-0.44158">
        <ele>58.7</ele>
        <time>2018-07-10T07:03:51Z</time>
      </trkpt>
      <trkpt lat="48.8689" lon="-0.44327">
        <ele>59.8</ele>
        <time>2018-07-10T07:03:51Z</time>
      </trkpt>
      <trkpt lat="48.86935" lon="-0.44639">
        <ele>59</ele>
        <time>2018-07-10T07:03:51Z</time>
      </trkpt>
      <trkpt lat="48.86914" lon="-0.44802">
        <ele>59.5</ele>
        <time>2018-07-10T07:03:51Z</time>
      </trkpt>
      <trkpt lat="48.86894" lon="-0.45041">
        <ele>69.1</ele>
        <time>2018-07-10T07:03:51Z</time>
      </trkpt>
      <trkpt lat="48.86884" lon="-0.454">
        <ele>63.7</ele>
        <time>2018-07-10T07:03:51Z</time>
      </trkpt>
      <trkpt lat="48.86905" lon="-0.45553">
        <ele>64.1</ele>
        <time>2018-07-10T07:03:51Z</time>
      </trkpt>
      <trkpt lat="48.86973" lon="-0.45798">
        <ele>63.7</ele>
        <time>2018-07-10T07:03:51Z</time>
      </trkpt>
      <trkpt lat="48.86984" lon="-0.46127">
        <ele>69.2</ele>
        <time>2018-07-10T07:03:51Z</time>
      </trkpt>
      <trkpt lat="48.86999" lon="-0.46312">
        <ele>67.4</ele>
        <time>2018-07-10T07:03:51Z</time>
      </trkpt>
      <trkpt lat="48.86996" lon="-0.46444">
        <ele>66.7</ele>
        <time>2018-07-10T07:03:51Z</time>
      </trkpt>
      <trkpt lat="48.86864" lon="-0.46682">
        <ele>67.3</ele>
        <time>2018-07-10T07:03:51Z</time>
      </trkpt>
      <trkpt lat="48.86779" lon="-0.4679">
        <ele>68.6</ele>
        <time>2018-07-10T07:03:51Z</time>
      </trkpt>
      <trkpt lat="48.86668" lon="-0.46884">
        <ele>66.8</ele>
        <time>2018-07-10T07:03:51Z</time>
      </trkpt>
      <trkpt lat="48.86601" lon="-0.46899">
        <ele>68</ele>
        <time>2018-07-10T07:03:51Z</time>
      </trkpt>
      <trkpt lat="48.86247" lon="-0.47008">
        <ele>78.9</ele>
        <time>2018-07-10T07:03:51Z</time>
      </trkpt>
      <trkpt lat="48.86112" lon="-0.47081">
        <ele>78.9</ele>
        <time>2018-07-10T07:03:51Z</time>
      </trkpt>
      <trkpt lat="48.85921" lon="-0.47352">
        <ele>77.7</ele>
        <time>2018-07-10T07:03:51Z</time>
      </trkpt>
      <trkpt lat="48.85867" lon="-0.47494">
        <ele>77.4</ele>
        <time>2018-07-10T07:03:51Z</time>
      </trkpt>
      <trkpt lat="48.85832" lon="-0.47688">
        <ele>83.2</ele>
        <time>2018-07-10T07:03:51Z</time>
      </trkpt>
      <trkpt lat="48.85857" lon="-0.47955">
        <ele>75.2</ele>
        <time>2018-07-10T07:03:51Z</time>
      </trkpt>
      <trkpt lat="48.85902" lon="-0.48153">
        <ele>68.8</ele>
        <time>2018-07-10T07:03:51Z</time>
      </trkpt>
      <trkpt lat="48.85893" lon="-0.48317">
        <ele>66.6</ele>
        <time>2018-07-10T07:03:51Z</time>
      </trkpt>
      <trkpt lat="48.85784" lon="-0.48607">
        <ele>68.9</ele>
        <time>2018-07-10T07:03:51Z</time>
      </trkpt>
      <trkpt lat="48.85724" lon="-0.48798">
        <ele>71.2</ele>
        <time>2018-07-10T07:03:51Z</time>
      </trkpt>
      <trkpt lat="48.8572" lon="-0.48962">
        <ele>76.5</ele>
        <time>2018-07-10T07:03:51Z</time>
      </trkpt>
      <trkpt lat="48.85752" lon="-0.49154">
        <ele>77.8</ele>
        <time>2018-07-10T07:03:51Z</time>
      </trkpt>
      <trkpt lat="48.85804" lon="-0.49347">
        <ele>78.4</ele>
        <time>2018-07-10T07:03:51Z</time>
      </trkpt>
      <trkpt lat="48.85796" lon="-0.49492">
        <ele>77.5</ele>
        <time>2018-07-10T07:03:51Z</time>
      </trkpt>
      <trkpt lat="48.85768" lon="-0.49597">
        <ele>73.7</ele>
        <time>2018-07-10T07:03:51Z</time>
      </trkpt>
      <trkpt lat="48.8568" lon="-0.49743">
        <ele>67.5</ele>
        <time>2018-07-10T07:03:51Z</time>
      </trkpt>
      <trkpt lat="48.85436" lon="-0.49979">
        <ele>70.2</ele>
        <time>2018-07-10T07:03:51Z</time>
      </trkpt>
      <trkpt lat="48.85242" lon="-0.5026">
        <ele>69.8</ele>
        <time>2018-07-10T07:03:51Z</time>
      </trkpt>
      <trkpt lat="48.85198" lon="-0.50348">
        <ele>70.3</ele>
        <time>2018-07-10T07:03:51Z</time>
      </trkpt>
      <trkpt lat="48.85107" lon="-0.50519">
        <ele>70.6</ele>
        <time>2018-07-10T07:03:51Z</time>
      </trkpt>
      <trkpt lat="48.8506" lon="-0.50633">
        <ele>76.2</ele>
        <time>2018-07-10T07:03:51Z</time>
      </trkpt>
      <trkpt lat="48.85049" lon="-0.50806">
        <ele>69.9</ele>
        <time>2018-07-10T07:03:51Z</time>
      </trkpt>
      <trkpt lat="48.85069" lon="-0.5106">
        <ele>85.5</ele>
        <time>2018-07-10T07:03:51Z</time>
      </trkpt>
      <trkpt lat="48.85124" lon="-0.51294">
        <ele>82.1</ele>
        <time>2018-07-10T07:03:51Z</time>
      </trkpt>
      <trkpt lat="48.85149" lon="-0.5145">
        <ele>84.3</ele>
        <time>2018-07-10T07:03:51Z</time>
      </trkpt>
      <trkpt lat="48.85144" lon="-0.51548">
        <ele>84.7</ele>
        <time>2018-07-10T07:03:51Z</time>
      </trkpt>
      <trkpt lat="48.85138" lon="-0.51604">
        <ele>83.4</ele>
        <time>2018-07-10T07:03:51Z</time>
      </trkpt>
      <trkpt lat="48.85025" lon="-0.51821">
        <ele>73.9</ele>
        <time>2018-07-10T07:03:51Z</time>
      </trkpt>
      <trkpt lat="48.84978" lon="-0.51826">
        <ele>73.4</ele>
        <time>2018-07-10T07:03:51Z</time>
      </trkpt>
      <trkpt lat="48.84934" lon="-0.51875">
        <ele>74.8</ele>
        <time>2018-07-10T07:03:51Z</time>
      </trkpt>
      <trkpt lat="48.84908" lon="-0.5192">
        <ele>76.7</ele>
        <time>2018-07-10T07:03:51Z</time>
      </trkpt>
      <trkpt lat="48.84883" lon="-0.52055">
        <ele>79.5</ele>
        <time>2018-07-10T07:03:51Z</time>
      </trkpt>
      <trkpt lat="48.84933" lon="-0.52329">
        <ele>79.7</ele>
        <time>2018-07-10T07:03:51Z</time>
      </trkpt>
      <trkpt lat="48.84953" lon="-0.52498">
        <ele>80.4</ele>
        <time>2018-07-10T07:03:51Z</time>
      </trkpt>
      <trkpt lat="48.84942" lon="-0.52586">
        <ele>91.5</ele>
        <time>2018-07-10T07:03:51Z</time>
      </trkpt>
      <trkpt lat="48.84806" lon="-0.52763">
        <ele>99.8</ele>
        <time>2018-07-10T07:03:51Z</time>
      </trkpt>
      <trkpt lat="48.84714" lon="-0.52855">
        <ele>111.5</ele>
        <time>2018-07-10T07:03:51Z</time>
      </trkpt>
      <trkpt lat="48.84631" lon="-0.529">
        <ele>114.2</ele>
        <time>2018-07-10T07:03:51Z</time>
      </trkpt>
      <trkpt lat="48.8459" lon="-0.5296">
        <ele>117.2</ele>
        <time>2018-07-10T07:03:51Z</time>
      </trkpt>
      <trkpt lat="48.84565" lon="-0.53012">
        <ele>120</ele>
        <time>2018-07-10T07:03:51Z</time>
      </trkpt>
      <trkpt lat="48.84521" lon="-0.53104">
        <ele>122.8</ele>
        <time>2018-07-10T07:03:51Z</time>
      </trkpt>
      <trkpt lat="48.8444" lon="-0.53146">
        <ele>126.4</ele>
        <time>2018-07-10T07:03:51Z</time>
      </trkpt>
      <trkpt lat="48.84395" lon="-0.53193">
        <ele>129.5</ele>
        <time>2018-07-10T07:03:51Z</time>
      </trkpt>
      <trkpt lat="48.84448" lon="-0.53294">
        <ele>128.7</ele>
        <time>2018-07-10T07:03:51Z</time>
      </trkpt>
      <trkpt lat="48.84541" lon="-0.53348">
        <ele>121.8</ele>
        <time>2018-07-10T07:03:51Z</time>
      </trkpt>
      <trkpt lat="48.84685" lon="-0.53396">
        <ele>110.9</ele>
        <time>2018-07-10T07:03:51Z</time>
      </trkpt>
      <trkpt lat="48.84761" lon="-0.53492">
        <ele>103.3</ele>
        <time>2018-07-10T07:03:51Z</time>
      </trkpt>
      <trkpt lat="48.8477" lon="-0.53623">
        <ele>103.3</ele>
        <time>2018-07-10T07:03:51Z</time>
      </trkpt>
      <trkpt lat="48.84732" lon="-0.54135">
        <ele>80.1</ele>
        <time>2018-07-10T07:03:51Z</time>
      </trkpt>
      <trkpt lat="48.84695" lon="-0.54265">
        <ele>84</ele>
        <time>2018-07-10T07:03:51Z</time>
      </trkpt>
      <trkpt lat="48.84689" lon="-0.54315">
        <ele>85.2</ele>
        <time>2018-07-10T07:03:51Z</time>
      </trkpt>
      <trkpt lat="48.84748" lon="-0.5465">
        <ele>82.2</ele>
        <time>2018-07-10T07:03:51Z</time>
      </trkpt>
      <trkpt lat="48.84763" lon="-0.54775">
        <ele>80.5</ele>
        <time>2018-07-10T07:03:51Z</time>
      </trkpt>
      <trkpt lat="48.84775" lon="-0.54864">
        <ele>81.2</ele>
        <time>2018-07-10T07:03:51Z</time>
      </trkpt>
      <trkpt lat="48.84791" lon="-0.54878">
        <ele>79.5</ele>
        <time>2018-07-10T07:03:51Z</time>
      </trkpt>
      <trkpt lat="48.84803" lon="-0.54891">
        <ele>77.5</ele>
        <time>2018-07-10T07:03:51Z</time>
      </trkpt>
      <trkpt lat="48.84843" lon="-0.54957">
        <ele>78.8</ele>
        <time>2018-07-10T07:03:51Z</time>
      </trkpt>
      <trkpt lat="48.84875" lon="-0.55016">
        <ele>79</ele>
        <time>2018-07-10T07:03:51Z</time>
      </trkpt>
      <trkpt lat="48.84875" lon="-0.5507">
        <ele>79.8</ele>
        <time>2018-07-10T07:03:51Z</time>
      </trkpt>
    </trkseg>
  </trk>
</gpx>